[{"header": {"dx": 0.06612293990616946, "dy": 0.0552356325346848, "nx": 98, "ny": 59, "la1": 35.046912555036876, "la2": 31.78801023549047, "lo1": -121.43107172385933, "lo2": -114.95102361305473, "refTime": "2026041312", "parameterCategory": 1, "parameterNumber": 2}, "data": [6.2, 6.2, 6.2, 6.4, 5.5, 5.33, 3.36, 2.35, 0.0, -1.34, -4.38, -6.4, -7.24, -6.71, -7.27, -8.93, -7.9, -9.2, -10.73, 11.18, 11.18, 11.62, 10.73, 10.73, 11.62, 12.07, 12.52, 12.52, 12.52, 11.91, 12.35, 12.27, 12.07, 11.62, 10.96, 8.94, 6.71, 6.97, 6.71, 6.44, 7.9, 9.3, 9.08, 10.79, 11.64, 12.94, 15.2, 16.8, 16.2, 16.54, 4.66, 5.99, 8.83, 10.18, 11.06, 11.77, 12.7, 14.13, 13.74, 14.24, 14.7, 13.89, 14.3, 13.29, 13.68, 13.99, 14.39, 14.79, 15.07, 15.27, 16.43, 16.97, 16.12, 15.61, 12.52, 10.75, 9.12, -0.0, -5.98, -11.06, -11.33, -12.39, -12.83, -12.35, -11.71, -8.85, 12.96, 12.96, 12.96, 12.41, 14.57, 14.27, 14.36, 14.94, 15.65, 14.27, 13.7, 12.94, 6.2, 6.98, 6.98, 6.2, 6.4, 6.4, 5.5, 3.47, 2.43, 0.0, -2.63, -6.9, -6.45, -4.8, -6.45, -7.9, -7.27, -8.22, 0.0, 0.0, 0.0, 11.62, 11.62, 12.07, 10.73, 11.62, 12.07, 11.62, 12.07, 12.27, 13.59, 14.11, 13.57, 11.61, 11.18, 9.75, 6.64, 5.36, 5.1, 5.9, 7.54, 10.12, 9.96, 11.17, 13.23, 15.25, 16.68, 16.39, 16.41, 10.12, 8.43, 9.73, 11.06, 10.75, 10.75, 11.77, 12.82, 13.58, 13.99, 14.44, 14.7, 14.11, 13.29, 12.9, 12.65, 13.42, 13.99, 13.97, 14.65, 15.69, 16.2, 17.23, 17.05, 15.71, 14.11, 11.52, 10.75, -0.0, -5.98, -11.06, -11.33, -12.39, -12.83, -12.35, -11.71, -8.85, 12.96, 12.96, 12.96, 12.41, 14.57, 14.27, 14.36, 14.94, 15.65, 14.27, 13.7, 12.94, 6.98, 6.98, 6.98, 6.98, 7.21, 6.6, 6.6, 5.67, 4.81, 1.23, -1.13, -3.82, -5.4, -2.82, 0.0, -7.59, -10.0, -8.22, -5.0, 0.0, 0.0, 0.0, 7.9, 11.6, 13.41, 12.07, 12.07, 11.18, 10.73, 11.62, 13.86, 15.34, 16.22, 14.31, 11.62, 10.58, 9.33, 7.33, 6.95, 8.73, 9.5, 10.36, 11.96, 13.23, 15.59, 16.17, 17.59, 16.41, 12.79, 11.33, 12.02, 12.02, 10.75, 10.75, 10.43, 11.77, 12.82, 14.39, 14.39, 14.6, 14.42, 13.89, 12.51, 11.8, 12.65, 12.09, 13.13, 14.39, 15.56, 16.25, 15.94, 16.91, 17.14, 16.88, 14.31, 12.27, 13.03, 3.16, -8.28, -11.38, -9.49, -11.44, -12.71, -11.84, -11.28, -8.53, 12.96, 12.96, 12.27, 13.05, 15.61, 14.64, 14.42, 13.8, 12.96, 12.75, 12.79, 12.79, 6.98, 6.98, 7.21, 6.98, 7.21, 7.43, 7.66, 6.8, 5.85, 4.52, 1.04, -1.09, -2.37, 0.0, 0.0, 0.0, 11.62, -8.53, -5.2, -3.68, 0.0, 0.0, 0.0, 5.2, 10.8, 12.96, 12.07, 11.62, 10.73, 11.18, 11.87, 13.15, 14.31, 16.09, 13.59, 11.21, 11.2, 11.21, 8.93, 9.48, 12.03, 13.96, 15.01, 15.01, 15.59, 15.69, 14.3, 13.75, 12.81, 12.81, 12.0, 11.68, 10.75, 9.6, 10.75, 11.44, 13.42, 13.99, 14.6, 14.95, 14.28, 13.48, 12.0, 11.2, 10.77, 12.82, 14.29, 14.99, 15.41, 16.31, 17.02, 17.68, 17.2, 17.43, 16.09, 14.75, 13.99, 3.9, -9.92, -12.57, -8.85, -6.4, -9.17, -11.45, -11.03, -0.0, 12.52, 12.14, 11.68, 13.99, 14.7, 14.47, 12.88, 12.52, 12.35, 12.66, 12.92, 12.92, 6.98, 6.98, 7.21, 7.21, 7.21, 7.43, 7.66, 7.66, 7.66, 6.4, 3.96, 1.91, 0.0, 0.0, 0.0, 5.2, 0.0, -8.53, -5.4, -2.93, 0.0, 0.0, 0.0, 0.0, 0.0, 12.07, 12.52, 12.52, 12.52, 10.41, 8.93, 6.2, 5.98, 7.73, 10.82, 11.17, 11.52, 11.9, 11.06, 11.45, 13.59, 13.76, 13.59, 13.88, 14.75, 14.75, 15.11, 14.4, 13.99, 13.19, 11.33, 10.43, 10.43, 9.6, 10.75, 12.0, 13.03, 14.44, 14.6, 14.61, 14.23, 12.81, 10.12, 9.02, 11.77, 13.92, 15.06, 15.06, 15.91, 16.59, 17.96, 18.88, 18.6, 17.97, 0.0, -6.6, 14.3, -0.0, -0.0, -14.53, -11.9, -0.0, -0.0, -11.62, -11.18, 7.9, 11.91, 12.39, 12.56, 13.91, 13.99, 12.47, 12.52, 12.52, 12.27, 12.88, 13.41, 13.41, 6.98, 6.98, 7.21, 7.21, 7.21, 7.43, 7.66, 8.16, 8.16, 7.68, 5.78, 4.81, 1.84, 0.0, 0.0, 0.0, 0.0, 0.0, 0.0, 0.0, 0.0, -1.98, -3.14, 0.0, 0.0, 3.96, 8.85, 10.79, 10.41, 10.04, 5.46, 0.0, 2.49, 7.73, 9.48, 9.17, 9.48, 10.94, 13.03, 10.17, 8.53, 10.12, 13.57, 15.11, 15.2, 15.65, 16.01, 15.27, 14.23, 13.15, 10.82, 10.12, 9.16, 10.43, 11.54, 13.29, 14.11, 14.28, 14.53, 14.18, 13.8, 11.53, 8.87, 9.89, 12.78, 14.65, 15.7, 15.87, 16.79, 18.42, 19.52, 19.41, 20.53, 21.97, 21.01, -15.19, -10.75, -0.0, 2.81, -12.27, -13.86, 0.0, 0.0, -10.41, -5.0, 2.28, 10.37, 13.15, 14.23, 13.67, 13.15, 12.91, 12.86, 12.52, 12.96, 13.86, 13.82, 13.81, 6.98, 6.98, 6.98, 7.21, 7.43, 7.66, 7.66, 8.16, 8.16, 7.2, 6.24, 6.24, 5.52, 4.6, 0.0, 0.0, 0.0, 3.96, 3.04, 2.06, 2.54, 0.0, 0.0, -1.89, 0.0, 2.35, 4.81, 6.4, 4.98, 0.0, -4.8, -2.97, 0.0, 7.27, 8.82, 9.8, 9.31, 10.65, 10.47, 8.05, 3.47, 5.8, 9.8, 13.19, 14.61, 15.2, 16.22, 15.69, 14.23, 13.19, 11.17, 9.8, 10.12, 11.64, 13.19, 13.48, 13.99, 13.7, 14.11, 13.94, 13.27, 9.17, 9.16, 11.38, 13.24, 15.72, 16.69, 16.7, 17.1, 19.03, 19.55, 18.99, 19.35, 22.02, 24.37, 19.93, -0.0, 2.98, 8.31, 13.86, -4.38, -2.72, -3.36, -6.0, -1.98, 2.93, 9.42, 13.2, 13.62, 12.87, 11.62, 11.76, 12.46, 12.71, 13.23, 13.53, 13.67, 13.19, 6.76, 6.98, 7.21, 7.43, 7.66, 8.16, 8.16, 8.16, 7.92, 6.96, 6.0, 6.0, 5.29, 6.71, 5.6, 0.0, 0.0, 3.14, 4.81, 4.81, 6.0, 6.9, 4.24, 1.94, 1.73, 2.09, 4.18, 2.21, 0.0, -4.24, -3.82, 0.0, 2.45, 6.94, 7.42, 8.32, 7.96, 7.36, 9.66, 8.22, 0.0, 3.36, 7.2, 12.33, 13.39, 14.3, 13.57, 14.3, 14.39, 13.39, 10.73, 10.12, 10.99, 12.42, 12.79, 13.39, 13.15, 13.15, 13.36, 12.75, 11.3, 10.47, 9.12, 12.57, 14.13, 16.34, 17.39, 17.36, 16.99, 17.43, 18.33, 18.78, 18.78, 20.09, 21.29, 19.19, 6.81, 8.51, 14.42, 15.2, 0.0, -4.95, -4.81, -2.35, 0.0, 3.1, 8.31, 10.77, 11.72, 11.33, 10.04, 10.01, 11.12, 12.45, 13.57, 13.15, 13.27, 12.85, 6.98, 7.21, 7.68, 7.92, 8.16, 8.16, 8.16, 8.16, 7.68, 6.72, 6.0, 5.76, 6.67, 4.81, 5.6, 3.96, 0.0, 3.14, 3.25, 3.14, 4.24, 7.44, 10.73, 8.58, 3.96, 4.32, 1.93, -2.63, -7.0, 0.0, 1.96, 1.89, 3.3, 4.38, 6.21, 6.97, 5.95, 5.95, 5.7, 0.0, -12.52, 0.0, 0.0, 0.0, 12.07, -0.0, 11.99, 13.19, 13.97, 13.46, 11.38, 10.99, 12.0, 12.42, 12.98, 13.01, 13.33, 12.47, 12.02, 11.57, 11.61, 11.44, 10.43, 13.23, 15.19, 15.93, 17.09, 17.64, 16.99, 17.33, 17.82, 17.85, 18.74, 19.22, 18.8, 13.28, 6.14, 13.8, 14.84, 16.44, 14.88, -6.34, -4.3, -1.72, 0.0, 2.81, 5.6, 8.44, 8.85, 8.53, 8.53, 6.7, 6.21, 8.94, 12.81, 13.28, 12.45, 11.99, 6.4, 7.68, 7.92, 7.92, 8.16, 8.16, 8.16, 8.16, 7.68, 6.72, 6.84, 7.1, 6.48, 7.13, 6.2, 6.0, 3.47, 4.66, 2.81, 2.54, 2.45, 4.81, 7.13, 8.94, 7.13, 4.15, 2.17, 0.0, 0.0, 2.02, 5.02, 3.9, 2.15, 2.2, 1.98, 3.98, 6.17, 5.63, 0.0, 12.96, -11.6, -11.6, -11.62, -10.73, -10.73, -11.62, -0.0, 9.17, 12.16, 11.06, 11.06, 12.22, 12.73, 13.59, 13.81, 13.96, 14.3, 12.96, 11.62, 11.62, 13.28, 11.38, 11.17, 12.01, 13.39, 15.63, 16.51, 16.66, 16.99, 16.48, 16.39, 16.7, 17.76, 17.88, 17.35, 7.4, 5.09, 14.75, 14.3, 15.2, 17.43, 0.0, -4.3, -1.55, 0.0, 1.53, 3.98, 7.13, 7.96, 6.94, 6.4, 4.75, 1.77, 3.81, 10.43, 11.88, 11.88, 11.16, 6.85, 7.68, 7.92, 7.92, 7.92, 8.16, 8.16, 7.92, 7.44, 7.36, 7.36, 7.62, 7.89, 7.95, 7.36, 5.31, 5.98, 5.64, 6.8, 5.5, 4.79, 4.23, 5.96, 5.81, 6.6, 5.4, 4.6, 2.02, 2.13, 4.52, 4.98, 4.81, 3.68, 5.2, 0.0, 2.82, 7.9, 10.0, 11.62, 13.86, 0.0, -9.48, -12.07, -11.62, -10.73, -7.59, -0.0, 3.82, 7.19, 8.31, 10.3, 12.33, 14.3, 14.78, 15.59, 16.7, 18.03, 16.54, 11.95, 12.96, 10.19, 7.22, 9.09, 8.87, 10.17, 13.59, 16.37, 16.79, 17.53, 16.58, 15.12, 14.6, 15.12, 15.43, 13.02, -0.0, -0.0, 14.75, 14.47, 14.9, 13.02, 0.0, 0.0, 0.0, 0.0, 1.94, 3.49, 6.17, 7.58, 5.8, 3.32, 1.77, 1.43, 2.72, 7.69, 10.82, 10.47, 9.48, 6.85, 6.85, 7.68, 7.92, 7.92, 7.92, 8.16, 7.92, 7.44, 7.62, 7.62, 7.89, 8.41, 8.94, 8.23, 6.94, 6.08, 7.93, 8.05, 9.74, 8.64, 8.4, 7.49, 7.2, 8.05, 7.78, 7.82, 5.21, 6.42, 6.17, 8.23, 10.52, 10.41, 8.4, 10.28, 8.23, 9.2, 11.62, 8.53, 13.41, 13.86, 13.86, 12.52, 11.62, 10.28, -0.0, -0.0, 3.96, 6.94, 7.44, 8.85, 12.01, 15.28, 17.44, 17.58, 18.68, 18.31, 17.97, 14.3, -0.0, -0.0, 5.94, 6.44, 3.88, 4.55, 9.75, 15.46, 17.93, 19.89, 20.28, 18.7, 16.74, 11.7, 15.2, -0.0, -0.0, -0.0, 10.43, 13.59, 4.66, -3.79, -5.09, 0.0, 0.0, 3.9, 6.31, 5.37, 5.23, 8.43, 6.2, 0.0, 0.0, 0.0, 1.33, 5.8, 8.38, 9.48, 5.8, 6.85, 6.85, 7.68, 7.92, 7.92, 7.92, 7.92, 7.68, 7.68, 7.89, 7.89, 8.15, 8.94, 9.8, 10.75, 10.01, 8.51, 7.96, 7.18, 8.1, 8.38, 8.67, 8.67, 9.17, 10.23, 10.41, 11.2, 11.39, 11.03, 10.78, 11.46, 11.18, 11.02, 10.58, 10.28, 9.83, 9.83, 7.9, 5.0, 8.22, 11.87, 12.3, 12.07, 10.73, 9.83, 10.73, 11.62, 12.07, 8.53, 11.2, 11.03, 11.87, 13.86, 15.05, 15.87, 16.76, 16.44, 18.38, 15.2, -4.24, -4.01, 1.73, 3.69, -0.0, 1.52, 5.78, 12.65, 17.69, 19.83, 22.23, 22.79, 22.78, 0.0, -19.22, -10.4, -0.0, -0.0, -0.0, -15.65, -11.06, -10.75, -11.06, -3.79, 0.0, 5.37, 12.33, 12.33, 11.7, 15.2, 10.12, 0.0, -2.06, -1.5, 0.0, 4.65, 6.87, 5.8, -12.96, 6.85, 6.85, 7.68, 7.68, 7.92, 7.92, 8.46, 8.2, 8.41, 8.15, 8.66, 8.94, 9.8, 10.75, 11.06, 11.38, 10.39, 10.1, 9.22, 9.57, 9.57, 10.12, 10.43, 10.97, 12.29, 11.69, 12.39, 12.93, 12.46, 12.27, 11.96, 11.62, 11.62, 10.28, 10.14, 9.21, 9.11, 8.55, 7.27, 10.18, 11.18, 11.18, 11.18, 10.6, 6.95, 0.0, 0.0, 0.0, 0.0, 8.22, 8.22, 9.3, 10.0, 9.67, 11.03, 11.18, 14.3, 18.22, 17.43, -0.0, -7.1, -0.0, -0.0, -0.0, -0.0, 3.24, 9.36, 12.33, 15.88, 15.7, 18.99, 21.43, 24.14, -10.2, -12.07, 10.12, 12.33, -0.0, -17.88, -16.96, -14.51, -9.17, 0.0, 0.0, 0.0, 10.19, 13.59, 15.61, 14.3, 13.86, 0.0, -3.14, -1.64, 0.0, 3.19, 2.45, 0.0, -13.41, 6.85, 6.85, 7.68, 7.68, 8.2, 8.46, 8.46, 8.46, 8.94, 8.94, 9.5, 9.5, 10.43, 10.75, 11.38, 12.36, 12.03, 11.38, 11.06, 11.63, 10.75, 11.25, 11.25, 12.16, 12.52, 13.33, 13.78, 13.56, 13.57, 13.01, 12.74, 11.4, 11.98, 10.28, 10.28, 9.64, 9.97, 8.8, 10.6, 9.54, 10.73, 11.62, 10.6, 9.6, 6.64, 0.0, 0.0, 0.0, 0.0, 0.0, 4.8, 8.55, 8.55, 7.6, 8.49, 9.39, 3.25, 11.6, 15.61, 8.18, -5.6, -2.54, -0.0, -0.0, -0.0, -0.0, 10.75, 10.12, 9.49, 13.59, 18.43, 21.3, 24.1, 18.97, -14.75, 11.7, 15.72, 17.59, 19.22, 19.22, -13.28, -8.0, 0.0, 0.0, -1.96, 0.0, 6.8, 13.19, 13.86, 12.79, 6.4, 0.0, -2.28, 0.0, 0.0, 0.0, 0.0, 0.0, 6.85, 6.85, 6.85, 8.2, 8.2, 8.2, 8.2, 8.46, 9.06, 9.5, 10.12, 10.43, 10.43, 11.36, 12.03, 12.36, 12.03, 11.7, 12.29, 11.96, 12.11, 12.11, 12.52, 12.86, 13.71, 13.97, 14.18, 14.18, 13.81, 13.65, 13.23, 13.44, 11.84, 11.62, 10.28, 9.64, 9.96, 9.96, 10.96, 10.73, 10.28, 10.73, 10.73, 9.83, 9.39, 9.39, 9.39, 9.39, 9.83, 6.64, 8.8, 9.33, 9.83, 9.39, 8.94, 6.32, 4.2, 7.27, 12.96, 5.8, -0.0, -3.68, -3.68, -5.4, 11.62, 12.07, 11.18, -0.0, 4.66, 14.91, 20.69, 21.39, 24.88, 22.8, -16.99, 8.2, 14.22, 16.81, 18.68, 19.08, 19.08, 19.22, 0.0, 0.0, 0.0, -3.36, -5.8, -9.8, -6.4, 0.0, 4.38, 0.0, 0.0, 5.6, 8.85, 0.0, 0.0, 0.0, 6.85, 6.85, 6.85, 7.95, 8.2, 8.2, 8.2, 9.06, 9.71, 10.43, 10.43, 11.03, 11.03, 11.36, 11.69, 12.03, 11.69, 12.92, 12.92, 13.38, 13.01, 13.39, 13.71, 13.58, 13.77, 13.77, 14.33, 14.33, 14.75, 15.18, 15.01, 15.01, 14.25, 12.14, 10.14, 10.73, 10.73, 10.73, 10.28, 10.28, 10.52, 9.21, 9.83, 7.6, 8.8, 8.8, 9.83, 9.83, 9.83, 9.83, 9.39, 9.83, 9.2, 10.28, 9.83, 8.8, 8.8, 9.54, 10.0, 5.6, 2.93, -0.0, -0.0, -0.0, 10.73, 9.39, -10.28, -10.73, 11.6, 17.43, 21.57, 20.05, 20.32, -20.56, -20.56, 3.77, 9.99, 14.35, 16.41, 16.74, 16.37, 17.47, 19.67, 12.96, 5.94, 7.4, -6.7, -13.15, -10.12, 6.4, 11.53, 11.71, 12.52, 12.58, 13.15, 11.99, 4.38, 4.38, 6.85, 6.85, 6.85, 6.64, 7.13, 7.93, 7.93, 9.42, 10.43, 10.43, 11.03, 11.03, 11.03, 11.36, 11.36, 11.03, 11.87, 12.57, 13.38, 13.01, 13.02, 13.33, 12.94, 13.19, 13.7, 14.23, 14.33, 14.65, 15.18, 15.6, 15.87, 15.79, 15.79, 14.25, 10.05, 11.09, 10.14, 10.14, 10.14, 10.08, 9.11, 9.54, 7.81, 8.18, 8.8, 9.2, 9.83, 9.83, 9.83, 10.28, 9.33, 9.33, 9.2, 9.75, 9.83, 10.28, 10.28, 9.97, 8.23, 7.9, 7.9, 9.3, 9.6, 10.28, 10.28, 8.94, 0.0, 0.0, 4.4, 13.51, 19.93, 20.34, -23.25, -21.46, -8.4, 3.59, 11.43, 16.06, 18.23, 16.74, 16.22, 17.05, 18.65, 12.33, 13.23, 13.01, 13.41, 12.96, 13.41, 14.3, 14.3, 13.15, 12.52, 13.41, 14.11, 14.11, 13.01, 13.01, 6.85, 6.85, 6.64, 7.13, 7.69, 7.69, 8.58, 9.42, 10.43, 10.43, 11.03, 11.03, 10.43, 11.03, 11.03, 12.36, 10.69, 12.22, 12.65, 13.13, 12.94, 13.33, 12.27, 13.27, 13.19, 15.2, 11.36, 15.36, 16.19, 13.99, 14.93, 15.36, 15.79, 15.36, 13.82, 10.37, 9.75, 9.68, 9.75, 10.6, 9.33, 8.72, 8.55, 8.55, 9.6, 9.2, 9.83, 9.83, 9.83, 10.28, 10.28, 9.75, 9.75, 9.75, 10.41, 10.41, 10.41, 10.84, 10.4, 10.4, 10.0, 9.3, 10.6, 9.83, 9.83, 8.0, 8.4, 4.96, 6.31, 13.02, 17.05, 21.34, 20.73, 20.32, 16.1, 15.77, 17.2, 17.77, 19.4, 19.65, 19.5, 20.52, 17.38, 14.38, 11.06, 12.65, 13.15, 12.79, 13.41, 13.41, 14.3, 13.86, 13.41, 13.41, 15.2, 15.2, 14.3, 14.3, 6.85, 6.85, 7.13, 7.13, 6.73, 8.31, 9.42, 9.42, 10.43, 11.03, 10.43, 10.43, 10.97, 11.52, 11.52, 11.17, 11.52, 11.17, 12.02, 12.37, 13.46, 13.02, 12.65, 14.03, 13.65, 14.36, 14.79, 13.39, 13.97, 14.84, 15.27, 15.27, 15.27, 15.69, 15.27, 13.15, 11.09, 10.67, 10.24, 9.93, 9.89, 9.62, 9.54, 9.49, 9.11, 10.18, 8.8, 10.28, 10.28, 9.83, 9.83, 10.28, 10.28, 10.18, 9.54, 10.52, 11.21, 9.6, 9.6, 10.4, 10.0, 9.6, 10.18, 10.28, 9.83, 9.2, 8.8, 8.55, 9.6, 11.95, 15.98, 20.13, 24.47, 24.93, 20.42, 17.43, 16.48, 14.46, 16.27, 19.22, 20.12, 22.35, 19.67, 16.01, 13.03, 11.88, 13.41, 11.99, 12.3, 12.14, 13.86, 14.11, 13.75, 14.3, 14.75, 15.65, 15.2, 15.2, 6.64, 6.85, 7.13, 6.73, 6.73, 8.31, 9.42, 10.12, 10.43, 10.43, 10.43, 10.97, 11.52, 11.52, 11.87, 11.87, 11.87, 10.82, 10.48, 12.37, 14.75, 13.58, 13.71, 12.94, 13.59, 13.78, 13.8, 14.38, 14.79, 15.2, 15.36, 15.69, 15.69, 15.69, 15.69, 14.42, 12.72, 11.09, 10.24, 10.41, 9.97, 10.08, 9.62, 9.62, 9.11, 10.96, 9.33, 9.75, 9.75, 10.28, 9.83, 10.28, 10.28, 10.73, 11.28, 10.52, 10.79, 9.58, 10.4, 9.6, 9.6, 10.41, 11.18, 12.07, 11.62, 10.0, 9.75, 11.18, 11.55, 12.63, 14.65, 18.54, 24.41, 24.59, 17.78, 16.64, 12.33, 10.43, 11.06, 14.61, 18.96, 21.88, 21.01, 15.17, 14.75, 13.86, 13.59, 12.79, 14.23, 12.14, 13.41, 13.57, 14.64, 13.72, 14.75, 15.2, 15.2, 15.2, 6.64, 7.13, 6.2, 6.73, 7.69, 8.31, 9.13, 10.12, 10.43, 10.43, 10.97, 11.52, 11.52, 11.52, 11.52, 11.87, 12.29, 11.57, 11.09, 12.27, 13.9, 13.9, 13.78, 13.99, 14.79, 15.39, 15.36, 14.53, 14.38, 14.79, 15.2, 15.2, 15.58, 15.58, 15.69, 15.27, 13.99, 12.3, 10.67, 10.41, 10.41, 10.37, 10.08, 9.62, 9.62, 9.11, 10.96, 9.97, 9.75, 9.75, 10.73, 10.73, 11.18, 11.62, 11.62, 11.28, 8.94, 9.42, 10.38, 9.97, 9.11, 10.08, 11.18, 11.62, 11.62, 10.73, 10.73, 10.0, 9.67, 11.16, 11.2, 16.26, 23.99, 25.93, 6.21, 8.59, 9.42, 6.88, 6.87, 9.81, 14.29, 18.01, 19.18, 16.06, 15.05, 14.9, 15.05, 15.93, 15.65, 13.37, 13.41, 13.72, 14.6, 14.75, 14.75, 15.2, 15.43, 15.43, 6.64, 6.64, 7.13, 7.69, 7.69, 9.13, 9.13, 10.12, 11.03, 11.03, 11.87, 11.87, 11.52, 11.52, 11.93, 12.29, 12.29, 11.93, 11.9, 12.56, 14.17, 13.78, 12.99, 13.59, 14.39, 15.39, 15.8, 15.77, 15.36, 14.53, 14.38, 14.79, 14.79, 14.79, 14.79, 15.16, 14.73, 12.72, 11.03, 10.18, 10.8, 10.8, 10.96, 10.05, 10.05, 9.58, 11.02, 10.08, 9.97, 10.41, 10.6, 11.18, 11.62, 11.62, 11.18, 11.18, 10.8, 10.73, 11.21, 8.77, 8.94, 9.83, 11.18, 12.07, 11.18, 11.03, 7.9, 4.8, 3.53, 5.98, 6.9, 14.13, 29.83, -21.25, -9.6, -4.0, 0.0, 2.98, 4.67, 6.81, 9.54, 12.65, 14.42, 14.99, 16.54, 16.93, 16.54, 16.54, 17.43, 17.36, 13.86, 13.59, 13.99, 14.55, 14.55, 14.42, 14.18, 14.18, 7.13, 7.13, 7.13, 7.69, 8.51, 8.51, 9.8, 10.12, 11.03, 11.03, 11.87, 11.87, 11.87, 11.93, 12.29, 12.29, 12.29, 12.27, 12.27, 12.56, 13.78, 14.17, 13.59, 12.79, 13.19, 14.39, 15.19, 15.8, 16.19, 15.36, 14.79, 13.97, 14.38, 14.38, 14.38, 14.38, 14.38, 13.05, 11.45, 10.6, 11.23, 10.8, 10.75, 10.49, 10.05, 10.02, 11.18, 11.02, 11.4, 11.28, 11.28, 11.28, 11.03, 11.18, 11.18, 11.18, 11.18, 11.71, 11.21, 10.52, 8.49, 8.67, 10.41, 11.62, 10.6, 10.0, 7.9, -0.0, -0.0, -0.0, 10.73, 22.75, 31.7, 28.22, -0.0, 15.2, 0.0, 0.0, 3.47, 4.47, 6.34, 8.68, 10.69, 12.65, 14.94, 16.22, 16.46, 16.54, 17.43, 16.75, 16.05, 14.75, 12.79, 10.12, 11.52, 12.27, 12.27, 12.27, 7.95, 7.95, 8.51, 8.51, 8.23, 8.23, 9.8, 10.69, 10.69, 11.03, 11.87, 11.87, 11.87, 12.29, 12.29, 12.29, 12.27, 12.27, 12.27, 12.94, 13.33, 14.56, 14.79, 13.99, 13.19, 13.59, 14.79, 15.19, 15.77, 15.61, 15.2, 14.79, 14.38, 13.97, 13.97, 13.97, 13.97, 13.56, 11.79, 10.95, 11.18, 11.18, 10.75, 10.32, 10.05, 10.25, 10.45, 10.41, 9.92, 9.92, 9.85, 12.27, 10.84, 10.18, 9.75, 10.28, 10.73, 10.28, 11.62, 10.96, 11.18, 8.94, 10.28, 11.18, 9.6, 9.6, 5.2, -0.0, -0.0, 8.23, 10.4, 16.48, 26.32, 26.86, 27.63, 26.97, 21.25, 0.0, 2.28, 3.01, 3.69, 5.85, 8.72, 11.06, 12.51, 14.23, 15.53, 16.09, 16.76, 12.33, 12.77, 14.13, 15.2, 6.4, 6.2, 8.66, 9.8, 9.8, 8.51, 8.51, 8.23, 8.23, 8.23, 8.91, 9.21, 10.69, 11.03, 11.52, 11.52, 11.87, 12.29, 12.65, 12.65, 12.29, 12.27, 12.27, 12.27, 12.65, 13.33, 14.56, 15.19, 14.79, 14.39, 13.59, 13.99, 14.79, 15.61, 15.61, 15.61, 15.2, 15.2, 14.38, 13.97, 13.97, 13.97, 13.97, 13.05, 10.95, 11.37, 11.18, 10.75, 10.25, 10.25, 10.68, 10.89, 10.89, 10.02, 10.25, 10.25, 9.92, 11.21, 11.71, 11.28, 10.6, 10.18, 10.6, 11.45, 12.07, 11.18, 11.18, 9.39, 9.83, 10.73, 8.22, 5.6, 4.1, 11.62, 10.27, 10.4, 14.9, 19.22, 24.12, 26.37, 25.99, 28.28, 9.8, 0.0, 0.0, 1.51, 3.9, 7.0, 8.06, 11.33, 14.38, 15.49, 16.09, 14.94, 8.28, 9.48, 13.99, 14.79, 10.12, 0.0, 2.72, 6.9, 6.9, 8.23, 8.23, 8.23, 8.23, 8.91, 9.21, 9.21, 10.12, 11.03, 11.52, 11.52, 11.87, 12.29, 12.65, 12.65, 12.65, 12.27, 12.27, 12.27, 12.65, 13.78, 14.17, 14.79, 15.19, 14.79, 14.39, 14.38, 14.79, 15.2, 15.2, 15.2, 14.79, 14.79, 15.2, 15.02, 14.61, 14.21, 14.6, 14.19, 12.93, 10.85, 10.85, 10.68, 10.25, 10.68, 11.11, 10.68, 10.25, 10.25, 10.25, 10.25, 10.25, 9.97, 9.85, 10.96, 10.84, 11.71, 10.6, 9.75, 10.84, 12.07, 11.18, 10.73, 9.83, 11.62, 8.22, 5.6, 10.8, 12.07, 12.0, 12.08, 13.88, 17.38, 20.95, 22.19, 24.87, 26.86, 22.23, -3.77, 0.0, 0.0, 1.19, 3.69, 4.11, 7.1, 11.68, 14.39, 16.09, 12.52, 8.05, 8.93, 15.01, 16.1, 15.47, 4.52, 0.0, 2.81, 2.81, 8.23, 8.23, 8.23, 8.91, 8.91, 9.21, 9.8, 10.12, 10.43, 11.52, 11.52, 11.87, 12.29, 12.65, 12.65, 13.02, 12.27, 12.27, 13.13, 13.51, 13.78, 14.17, 14.56, 14.79, 14.79, 15.2, 14.79, 14.38, 14.38, 14.79, 14.79, 14.79, 14.79, 14.79, 14.61, 14.61, 14.61, 14.6, 14.6, 13.77, 12.1, 10.43, 10.68, 10.25, 10.68, 10.68, 10.68, 10.25, 10.25, 10.25, 10.25, 10.45, 10.45, 9.75, 9.66, 11.21, 11.21, 11.28, 10.18, 11.28, 11.84, 11.53, 10.73, 10.73, 11.18, 9.17, 8.85, 11.03, 11.62, 12.52, 13.41, 14.58, 15.18, 15.78, 18.7, 22.76, 26.37, 25.93, -5.2, 0.0, 0.0, 1.39, 2.1, 3.47, 3.85, 5.02, 6.8, 15.27, 11.38, 10.75, 12.22, 14.78, 17.36, 16.75, 14.99, 13.02, 0.0, 0.0, 8.23, 8.23, 8.91, 8.91, 8.91, 9.21, 9.8, 10.12, 10.43, 11.52, 11.52, 12.29, 12.29, 12.65, 12.65, 13.02, 12.65, 12.74, 13.13, 13.78, 13.78, 13.78, 14.17, 14.79, 15.2, 15.2, 14.79, 14.38, 14.38, 14.38, 14.79, 14.79, 14.79, 14.79, 14.61, 14.61, 14.61, 14.61, 14.6, 14.6, 12.93, 10.43, 10.32, 11.3, 11.71, 10.41, 10.18, 9.75, 10.6, 10.25, 10.68, 10.25, 10.25, 11.96, 12.39, 11.03, 12.3, 11.62, 11.28, 10.4, 10.8, 11.28, 10.96, 11.62, 8.22, 7.19, 9.48, 11.71, 10.73, 11.11, 12.93, 15.61, 16.12, 13.42, 11.7, 15.62, 20.78, 22.43, 24.17, 7.07, 7.14, 4.6, 3.8, 2.62, 0.0, 0.0, 10.12, 12.65, 13.42, 13.42, 13.42, 14.75, 16.24, 16.79, 16.48, 15.38, 15.78, 15.78, 7.69, 7.69, 8.91, 8.91, 8.91, 9.8, 9.8, 10.12, 10.43, 11.52, 11.52, 11.93, 12.29, 12.65, 12.65, 13.02, 13.51, 13.13, 13.13, 13.38, 13.78, 13.38, 13.78, 14.17, 14.61, 15.02, 14.61, 14.21, 14.38, 14.38, 14.38, 14.38, 14.38, 14.38, 14.21, 14.21, 14.61, 14.61, 14.21, 14.6, 13.62, 11.55, 10.32, 9.9, 10.08, 11.3, 11.61, 11.34, 10.6, 10.18, 10.18, 10.6, 11.45, 13.15, 12.72, 11.45, 10.18, 10.5, 11.87, 10.8, 10.79, 11.61, 11.4, 11.62, -0.0, 8.85, 11.53, 13.15, 10.28, 9.21, 11.71, 15.17, 18.74, 18.36, 11.66, 13.51, 16.79, 17.19, 20.88, 24.25, 18.6, 9.24, 6.47, 4.88, 5.18, 12.79, 14.55, 13.39, 14.42, 14.65, 14.79, 15.19, 16.09, 17.61, 16.89, 16.19, 15.61, 15.61, 8.38, 8.38, 8.38, 8.38, 8.91, 9.8, 9.8, 10.12, 10.43, 10.97, 11.52, 11.52, 12.29, 12.65, 12.65, 13.02, 13.02, 13.13, 13.13, 13.38, 13.38, 13.38, 13.38, 13.78, 14.61, 14.61, 14.61, 14.21, 13.8, 13.97, 14.38, 14.38, 13.97, 13.8, 13.8, 13.8, 14.21, 14.21, 14.21, 13.99, 14.03, 12.38, 10.32, 10.01, 9.9, 10.88, 12.33, 12.45, 11.76, 10.17, 10.32, 10.32, 10.73, 11.87, 11.87, 11.45, 10.32, 10.73, 10.6, 11.2, 10.4, 11.21, 11.71, 11.62, 11.62, 11.62, 12.52, 12.96, 11.62, 10.32, 8.4, 11.44, 17.43, 24.14, 20.01, 14.29, 16.6, 15.68, 15.87, 20.77, 21.48, 20.36, 15.84, 16.66, 17.43, 15.74, 14.15, 14.31, 14.1, 14.28, 14.65, 13.99, 15.36, 16.12, 17.62, 17.3, 16.03, 16.03, 8.38, 8.38, 8.38, 8.38, 8.97, 9.8, 9.8, 10.12, 10.43, 10.97, 11.52, 11.52, 11.93, 12.29, 12.65, 13.02, 13.02, 13.02, 13.51, 13.13, 13.13, 13.38, 13.78, 13.78, 13.78, 14.61, 14.61, 13.8, 15.11, 12.79, 13.8, 14.21, 13.8, 13.8, 13.39, 13.8, 13.8, 14.21, 13.99, 13.99, 13.99, 13.2, 10.73, 10.01, 10.01, 10.01, 11.45, 12.6, 11.76, 12.18, 12.6, 11.14, 10.32, 10.73, 10.73, 10.73, 10.73, 10.43, 10.43, 10.43, 11.5, 11.21, 10.0, 11.62, 11.62, -7.9, 0.0, 10.8, 12.39, 12.07, 10.62, 10.62, 13.86, 21.84, 27.47, 17.88, 12.33, 12.04, 14.51, 17.53, 20.38, 19.6, 18.68, 14.93, 16.54, 16.54, 15.57, 15.61, 14.75, 13.57, 13.39, 13.15, 13.99, 14.53, 16.44, 16.62, 15.84, 15.84, 8.38, 8.38, 8.38, 8.38, 8.97, 9.27, 9.8, 10.12, 10.43, 10.97, 10.97, 10.97, 11.93, 11.93, 12.65, 12.65, 13.02, 13.02, 13.02, 13.13, 13.51, 13.51, 13.78, 13.38, 13.78, 13.78, 13.78, 13.38, 12.99, 14.71, 12.79, 13.8, 14.21, 14.21, 13.8, 13.8, 13.8, 13.59, 13.99, 13.99, 13.99, 13.19, 11.55, 10.43, 10.01, 10.43, 10.73, 11.97, 11.45, 12.72, 12.3, 11.14, 10.32, 10.32, 10.32, 10.73, 10.73, 10.43, 10.15, 10.55, 10.85, 10.0, 11.2, 11.18, 11.62, 0.0, 0.0, 5.95, 11.84, 12.96, 12.52, 11.62, 11.88, 18.66, 28.16, 26.71, 10.75, 10.79, 13.81, 16.05, 18.11, 18.78, 16.96, 14.95, 14.16, 15.34, 15.34, 15.46, 15.41, 13.8, 12.89, 12.3, 13.01, 14.69, 15.05, 15.23, 15.56, 15.56, 8.1, 8.1, 8.38, 8.97, 8.97, 9.27, 9.8, 10.12, 10.12, 10.97, 10.97, 10.97, 10.97, 11.93, 12.29, 12.65, 12.65, 12.65, 12.65, 13.02, 13.51, 13.51, 13.51, 13.38, 13.38, 13.78, 13.78, 13.38, 13.38, 13.39, 13.19, 13.19, 13.39, 13.8, 13.8, 13.8, 13.59, 13.59, 13.99, 13.99, 13.99, 13.59, 11.99, 9.9, 10.01, 10.43, 10.73, 11.55, 11.14, 11.45, 11.45, 10.73, 9.9, 10.32, 10.32, 10.32, 10.85, 10.43, 10.15, 10.85, 12.3, 10.8, 10.04, 11.45, 9.6, 7.9, 6.2, 6.71, 10.4, 12.96, 12.96, 13.41, 12.66, 15.55, 23.66, 27.03, 20.85, 15.34, 14.42, 14.94, 16.12, 16.99, 13.59, 13.26, 16.19, 14.15, 15.15, 14.7, 15.09, 13.59, 12.3, 13.15, 13.41, 14.3, 15.2, 15.08, 15.87, 15.87, 8.1, 8.1, 8.38, 8.97, 8.97, 8.97, 9.27, 10.12, 10.12, 10.97, 10.97, 10.97, 10.97, 11.42, 12.29, 12.65, 12.29, 12.29, 12.65, 13.02, 13.02, 13.02, 13.51, 13.51, 13.38, 13.38, 13.78, 13.38, 13.38, 13.38, 12.99, 12.36, 12.36, 12.79, 13.19, 13.59, 13.59, 13.59, 13.59, 13.99, 13.99, 13.59, 12.39, 10.73, 10.01, 10.01, 10.73, 11.14, 11.14, 10.32, 10.32, 10.32, 9.9, 9.9, 10.32, 10.32, 10.32, 10.43, 10.32, 10.32, 9.77, 12.3, 10.8, 10.8, 10.04, 9.67, 10.0, 9.58, 11.03, 12.42, 12.96, 14.3, 14.75, 17.26, 21.46, 22.65, 22.35, 19.88, 16.94, 14.71, 12.52, 11.38, 5.09, 13.99, 15.49, 13.41, 13.86, 14.3, 13.8, 13.31, 13.28, 13.86, 14.3, 14.19, 15.11, 15.58, 15.62, 15.62, 8.1, 8.1, 8.38, 8.97, 8.97, 8.97, 9.27, 9.8, 10.12, 10.63, 10.97, 10.97, 10.97, 10.97, 11.93, 12.29, 12.29, 12.29, 12.29, 13.02, 13.02, 13.02, 13.02, 13.51, 13.51, 13.38, 13.38, 13.38, 12.99, 12.99, 12.99, 12.99, 12.36, 11.97, 12.79, 12.79, 13.19, 13.59, 13.59, 13.59, 13.59, 13.59, 13.2, 11.14, 9.6, 10.85, 11.14, 10.73, 11.14, 10.32, 9.9, 10.32, 10.32, 9.9, 9.9, 10.32, 10.32, 9.9, 9.9, 9.9, 9.9, 9.36, 11.87, 10.0, 10.4, 10.04, 10.18, 10.96, 11.46, 11.62, 13.41, 13.36, 16.9, 19.17, 21.01, 20.12, 20.38, 21.38, 21.01, 20.6, 15.62, -0.0, 13.41, 12.96, 13.23, 13.31, 13.34, 13.86, 13.86, 14.3, 14.75, 14.75, 14.75, 14.6, 15.11, 15.58, 15.65, 15.65, 8.1, 8.1, 8.38, 8.97, 8.97, 8.97, 9.27, 9.27, 10.12, 10.63, 10.63, 10.97, 10.97, 10.97, 10.97, 12.29, 12.29, 12.29, 12.29, 12.65, 12.65, 13.02, 13.02, 13.51, 13.13, 13.13, 13.38, 13.38, 12.99, 12.99, 12.99, 12.99, 12.36, 11.97, 12.39, 12.39, 12.79, 13.19, 13.19, 13.59, 13.59, 13.59, 12.62, 11.3, 10.32, 10.73, 10.73, 10.32, 10.73, 10.73, 9.9, 9.9, 10.32, 9.9, 9.9, 10.32, 10.32, 9.9, 9.9, 9.9, 9.9, 9.36, 11.45, 10.0, 11.03, 11.45, 9.97, 10.96, 11.46, 11.62, 11.98, 13.15, 15.78, 21.11, 21.9, 17.85, 17.78, 19.64, 21.44, 23.22, 20.12, 15.2, 11.2, 10.01, 10.73, 11.92, 12.56, 12.89, 14.16, 14.75, 15.2, 15.2, 15.2, 15.05, 15.49, 15.27, 15.83, 16.04, 8.1, 8.1, 8.1, 8.38, 8.97, 8.97, 9.27, 9.27, 10.12, 10.12, 10.63, 10.63, 10.63, 10.63, 10.97, 11.87, 11.87, 12.29, 12.29, 12.65, 12.65, 12.65, 13.02, 13.02, 13.51, 13.13, 13.13, 13.13, 12.74, 12.74, 12.36, 12.36, 12.36, 12.39, 12.39, 12.39, 12.39, 12.79, 13.19, 13.19, 13.19, 13.59, 11.77, 11.09, 10.08, 9.9, 10.32, 10.73, 11.14, 11.14, 10.4, 10.0, 9.6, 9.2, 9.2, 9.6, 9.6, 9.2, 9.2, 9.6, 9.49, 9.36, 10.8, 10.41, 10.41, 10.84, 10.84, 11.02, 11.62, 11.62, 11.46, 12.79, 14.47, 18.52, 24.21, 21.68, 11.93, 15.99, 19.79, 20.56, 17.88, 15.27, 11.8, 9.17, 10.12, 11.64, 11.53, 12.39, 13.57, 14.55, 14.99, 14.99, 14.99, 15.49, 15.04, 15.27, 16.22, 15.83, 7.62, 7.62, 8.1, 8.38, 8.97, 8.97, 8.97, 9.27, 10.12, 10.12, 10.12, 10.63, 10.63, 10.63, 10.97, 10.97, 11.87, 11.87, 12.29, 12.29, 12.65, 12.65, 12.65, 12.65, 13.13, 12.74, 12.74, 12.74, 12.74, 12.74, 12.36, 12.36, 12.36, 12.39, 12.39, 12.39, 12.39, 12.39, 12.79, 12.79, 12.95, 12.95, 11.99, 9.42, 11.3, 10.58, 12.38, 12.38, 11.6, 11.6, 11.2, 10.8, 10.0, 9.2, 9.2, 9.2, 9.2, 9.2, 9.2, 9.2, 9.2, 9.03, 8.4, 10.38, 10.84, 10.84, 10.08, 10.96, 11.62, 12.07, 11.91, 11.95, 13.41, 16.27, 20.22, 23.75, 23.32, 14.65, 15.52, 15.2, 14.75, 11.38, 12.33, 11.38, 9.48, 9.8, 11.17, 11.44, 13.28, 14.47, 14.99, 14.99, 14.99, 15.04, 15.04, 15.47, 15.61, 16.22, 7.62, 7.62, 8.1, 8.1, 8.38, 8.38, 8.97, 9.27, 9.27, 9.57, 10.12, 10.12, 10.63, 10.63, 10.97, 10.97, 11.87, 11.87, 12.29, 12.29, 12.29, 12.29, 12.65, 12.65, 13.13, 12.74, 12.74, 12.74, 12.74, 12.74, 12.36, 11.97, 11.97, 11.97, 11.97, 12.39, 12.39, 12.39, 12.39, 12.39, 12.56, 13.19, 12.39, 10.4, 9.42, 11.6, 13.02, 12.56, 12.17, 11.99, 11.99, 11.2, 10.4, 9.6, 8.8, 8.8, 9.2, 9.2, 8.8, 9.2, 9.03, 9.03, 11.2, 10.38, 10.0, 10.84, 9.75, 11.28, 11.18, 12.07, 12.07, 12.07, 12.52, 13.77, 15.77, 21.11, 27.91, 26.74, 12.01, -11.6, -6.6, 7.6, 9.66, 10.12, 7.82, 8.66, 8.58, 10.12, 11.8, 13.7, 13.99, 14.42, 14.42, 15.04, 15.47, 15.27, 15.27, 15.27, 7.62, 7.62, 7.62, 8.1, 8.1, 8.38, 8.38, 9.27, 9.27, 9.27, 9.27, 10.12, 10.12, 10.63, 10.63, 10.97, 11.52, 11.87, 11.52, 12.29, 12.29, 12.29, 12.29, 12.82, 12.82, 12.74, 12.74, 12.74, 12.74, 12.74, 12.36, 11.97, 11.97, 11.97, 11.58, 11.97, 12.39, 12.39, 12.39, 12.39, 12.79, 12.79, 12.39, 10.8, 10.4, 11.2, 13.02, 12.17, 11.38, 11.38, 11.38, 10.6, 9.81, 8.8, 8.8, 8.8, 8.8, 8.63, 8.63, 9.03, 9.03, 9.03, 8.8, 10.79, 10.0, 10.84, 10.84, 10.84, 10.73, 12.07, 12.07, 11.62, 12.52, 12.01, 14.31, 17.56, 23.24, 30.34, 26.05, 19.67, -7.6, 0.0, 4.03, 3.67, 3.01, 4.98, 5.15, 8.31, 11.44, 12.65, 13.99, 14.42, 14.61, 13.97, 15.27, 15.87, 15.87, 15.87, 7.62, 7.62, 7.62, 8.1, 8.1, 8.38, 8.38, 8.38, 8.66, 9.27, 9.8, 9.8, 10.12, 10.12, 10.12, 10.97, 11.52, 11.52, 11.52, 12.29, 12.29, 12.29, 12.82, 12.82, 12.45, 12.07, 12.74, 12.74, 12.74, 12.74, 12.36, 11.97, 11.97, 11.58, 11.58, 11.58, 12.39, 12.39, 12.39, 12.39, 12.79, 12.36, 12.39, 11.2, 10.8, 11.2, 11.99, 11.38, 10.6, 10.2, 9.81, 9.81, 9.03, 8.24, 8.24, 8.24, 8.63, 8.63, 8.63, 8.63, 8.63, 8.63, 8.43, 9.97, 10.0, 10.84, 11.28, 11.28, 10.73, 11.62, 11.18, 11.18, 11.62, 12.96, 13.8, 15.43, 19.63, 24.22, 28.54, 26.33, 23.25, 0.0, 0.0, 0.0, 0.0, 2.2, 2.63, 8.05, 10.12, 12.65, 13.19, 12.81, 13.2, 14.38, 15.04, 15.04, 15.04, 15.04, 7.36, 7.36, 7.62, 8.1, 8.1, 8.1, 8.38, 8.38, 8.38, 9.21, 9.8, 9.8, 10.12, 10.12, 10.12, 10.97, 11.52, 11.52, 11.52, 11.52, 12.82, 12.82, 12.82, 12.82, 12.82, 12.45, 12.74, 12.74, 12.74, 12.74, 12.36, 12.36, 11.97, 11.97, 11.58, 11.58, 11.99, 12.39, 12.39, 11.97, 12.36, 12.36, 11.97, 11.6, 10.8, 10.8, 11.2, 11.2, 10.2, 9.42, 8.63, 7.92, 7.92, 8.24, 8.24, 8.24, 8.24, 8.24, 8.24, 8.24, 8.05, 8.05, 8.05, 8.21, 10.79, 10.0, 10.84, 10.41, 11.18, 10.73, 11.62, 10.73, 11.62, 12.96, 14.3, 15.39, 17.35, 20.34, 21.99, 23.86, 27.35, 27.72, 0.0, 0.0, 0.0, 0.0, 2.54, 4.98, 8.38, 10.82, 12.65, 12.03, 12.81, 13.97, 13.97, 13.56, 13.56, 13.56, 7.36, 7.36, 7.82, 8.1, 8.1, 8.1, 8.38, 8.38, 8.38, 9.21, 9.21, 9.8, 10.12, 10.12, 10.12, 11.03, 11.52, 11.52, 11.52, 11.52, 12.09, 12.45, 12.82, 12.82, 12.45, 12.45, 12.45, 12.74, 12.74, 12.74, 12.36, 12.36, 11.97, 11.97, 11.58, 11.58, 11.58, 11.97, 11.97, 11.97, 11.97, 12.36, 11.97, 11.58, 11.2, 10.6, 10.99, 10.99, 10.6, 9.43, 8.67, 7.54, 7.54, 8.05, 7.85, 8.24, 8.24, 8.24, 8.24, 8.05, 8.05, 8.05, 7.67, 8.05, 8.21, 10.38, 10.41, 9.54, 9.97, 10.73, 10.58, 11.18, 12.07, 12.96, 14.3, 14.66, 16.22, 18.73, 19.31, 18.76, 22.15, 29.9, 23.6, 0.0, 0.0, 0.0, 2.13, 5.8, 7.19, 10.12, 11.09, 11.99, 12.79, 13.19, 13.19, 14.03, 14.03, 14.03, 7.82, 7.82, 7.82, 8.1, 8.1, 8.1, 8.1, 8.38, 8.91, 9.21, 9.21, 9.8, 9.8, 10.12, 10.69, 10.69, 10.69, 11.17, 11.17, 11.72, 12.09, 12.45, 12.45, 12.82, 12.82, 12.45, 12.07, 12.74, 12.74, 12.74, 12.74, 12.36, 12.36, 11.97, 11.58, 11.58, 11.58, 11.58, 11.97, 11.97, 11.97, 11.97, 11.69, 11.31, 10.94, 10.18, 10.56, 10.56, 10.56, 9.81, 9.05, 7.92, 7.32, 7.32, 7.67, 8.05, 8.05, 7.67, 7.67, 7.67, 7.67, 7.67, 7.44, 7.44, 7.82, 10.38, 9.2, 9.97, 10.41, 9.97, 10.41, 11.18, 12.07, 12.96, 13.86, 14.64, 15.27, 17.25, 18.16, 17.99, 18.57, 24.96, 28.84, 5.0, 0.0, 2.53, 4.18, 5.11, 6.43, 7.51, 11.6, 13.86, 14.3, 14.3, 14.3, 14.3, 14.3, 14.3, 7.82, 7.82, 7.82, 7.82, 8.1, 8.1, 8.61, 8.91, 8.91, 8.91, 9.21, 9.21, 9.8, 10.69, 10.69, 10.69, 10.69, 11.17, 11.17, 11.72, 12.09, 12.09, 12.82, 12.82, 12.82, 12.45, 12.07, 11.69, 12.36, 12.36, 12.74, 12.74, 12.36, 11.69, 11.31, 11.58, 11.58, 11.58, 11.58, 11.58, 11.58, 11.69, 11.69, 11.31, 10.94, 10.56, 10.94, 10.56, 10.56, 9.81, 9.05, 8.67, 7.69, 7.32, 7.32, 7.67, 7.67, 7.67, 7.67, 7.67, 7.67, 7.44, 7.44, 7.44, 7.44, 9.58, 9.6, 9.6, 10.41, 10.73, 11.18, 11.18, 12.07, 12.52, 13.41, 14.19, 15.11, 16.22, 17.64, 17.91, 18.39, 20.41, 23.85, 27.57, 0.0, 0.0, 4.23, 5.02, 6.7, 8.53, 12.52, 11.6, 9.48, 13.15, 12.72, 11.16, 11.16, 11.16, 7.18, 7.18, 7.18, 7.82, 7.82, 8.61, 8.61, 8.91, 8.91, 8.91, 9.21, 9.21, 9.8, 10.69, 10.69, 10.69, 10.69, 10.69, 11.17, 11.72, 11.72, 12.09, 12.09, 12.45, 12.45, 12.45, 12.07, 11.69, 11.69, 11.97, 11.97, 12.36, 12.07, 11.69, 11.31, 11.31, 11.58, 11.58, 11.58, 11.58, 11.31, 11.31, 11.69, 11.31, 10.94, 10.56, 10.94, 10.94, 10.18, 9.81, 9.05, 8.42, 8.06, 7.69, 7.32, 7.32, 7.67, 7.67, 7.28, 7.67, 7.44, 7.07, 7.07, 7.07, 6.79, 8.8, 9.2, 10.18, 10.73, 10.73, 11.18, 10.73, 11.62, 12.07, 12.96, 13.75, 14.64, 15.27, 16.19, 17.5, 17.99, 18.4, 19.16, 24.34, 27.88, -2.83, 3.58, 2.95, 5.75, 9.3, 11.62, 12.52, 11.87, 12.3, 11.45, 11.28, 11.28, 11.28, 7.18, 6.92, 7.18, 7.18, 7.68, 7.96, 7.96, 7.96, 8.23, 8.91, 9.21, 9.21, 10.12, 10.12, 10.36, 10.36, 10.36, 10.36, 10.82, 11.72, 11.72, 12.09, 12.09, 12.45, 12.45, 12.45, 12.07, 12.07, 11.69, 11.31, 11.31, 11.31, 11.69, 11.69, 11.31, 10.94, 11.2, 11.2, 11.2, 10.94, 11.31, 11.31, 11.31, 11.31, 10.48, 10.48, 10.48, 10.25, 9.89, 9.52, 8.79, 8.42, 8.06, 7.32, 6.96, 6.96, 6.96, 6.96, 7.28, 7.07, 7.07, 7.07, 7.07, 6.7, 6.44, 7.51, 8.8, 10.41, 10.41, 11.18, 11.18, 11.18, 10.41, 11.46, 12.52, 13.41, 14.19, 14.84, 15.69, 17.02, 18.48, 17.66, 18.4, 22.39, 27.32, -3.23, 0.0, 0.0, 0.0, 5.2, 11.28, 12.07, 11.62, 12.07, 11.62, 11.03, 11.03, 11.03, 6.92, 6.92, 6.92, 7.18, 7.68, 7.68, 7.96, 7.96, 8.23, 8.23, 9.21, 9.8, 10.12, 10.12, 10.36, 10.02, 10.02, 10.36, 10.69, 11.17, 11.72, 11.72, 12.09, 12.45, 12.45, 12.45, 12.07, 12.07, 11.69, 11.69, 11.31, 11.31, 11.31, 11.31, 10.94, 10.94, 11.2, 11.2, 10.94, 10.94, 10.94, 10.94, 11.31, 10.85, 10.48, 10.48, 10.25, 10.25, 9.89, 9.52, 8.79, 8.06, 8.06, 7.69, 7.32, 6.96, 6.96, 6.96, 6.35, 6.7, 6.7, 6.35, 6.7, 6.44, 6.44, 5.43, 6.32, 8.18, 8.55, 9.96, 10.96, 11.4, 10.84, 8.55, 11.4, 12.52, 13.75, 14.31, 15.27, 16.66, 17.98, 18.84, 20.04, 22.93, 21.99, -18.79, -12.01, -5.2, -4.8, 0.0, 11.62, 11.62, 11.62, 11.62, 12.07, 12.52, 12.52, 12.52, 6.92, 6.92, 6.92, 7.41, 7.68, 7.68, 7.68, 7.96, 8.54, 8.83, 9.8, 9.8, 10.12, 9.8, 10.02, 10.02, 10.36, 10.36, 10.69, 11.17, 11.17, 11.72, 12.09, 12.09, 12.45, 12.07, 12.07, 11.69, 11.21, 11.69, 11.31, 11.31, 11.31, 11.31, 10.94, 10.94, 10.94, 10.56, 10.56, 10.94, 10.94, 10.94, 10.94, 10.48, 10.48, 10.62, 10.25, 10.25, 9.89, 9.52, 8.79, 8.42, 8.42, 7.41, 7.06, 6.7, 6.35, 6.35, 6.35, 6.35, 6.35, 6.35, 6.06, 6.08, 6.08, 5.43, 6.01, 6.32, 6.95, 8.55, 8.58, 10.6, 10.38, 10.18, 10.18, 12.07, 13.28, 14.64, 15.11, 15.99, 16.66, 18.68, 21.01, 28.59, 23.69, -21.01, -17.43, -13.86, -11.62, -7.27, 5.0, 8.53, 10.8, 12.52, 12.96, 13.41, 13.41, 13.41, 6.92, 6.92, 6.92, 7.41, 7.68, 7.68, 8.24, 8.54, 8.54, 8.83, 9.8, 9.8, 9.8, 9.8, 9.48, 10.02, 10.36, 10.36, 10.36, 10.69, 11.17, 11.17, 11.52, 11.52, 11.52, 11.17, 11.57, 11.21, 11.21, 11.31, 11.31, 11.31, 11.31, 11.31, 10.94, 10.56, 10.56, 10.56, 10.56, 10.56, 10.94, 10.94, 10.94, 10.94, 10.62, 10.62, 10.25, 10.25, 9.89, 9.08, 8.38, 8.42, 7.76, 7.41, 7.06, 6.7, 6.7, 6.35, 6.35, 6.35, 6.35, 6.06, 5.72, 5.72, 5.38, 5.06, 4.36, 3.72, 4.0, 4.4, 6.95, 8.55, 10.41, 11.18, 11.18, 11.62, 12.79, 14.19, 15.11, 15.55, 15.99, 17.81, 25.9, 27.84, 24.59, -20.12, -14.13, -6.2, -4.65, -2.28, 2.71, 7.78, 9.48, 11.16, 12.72, 13.86, 13.86, 13.86, 6.21, 6.21, 6.7, 6.7, 6.7, 7.51, 7.51, 8.54, 8.54, 8.83, 8.83, 9.48, 9.48, 9.48, 9.17, 9.48, 10.36, 10.36, 10.36, 10.69, 11.17, 11.17, 11.17, 11.17, 11.17, 11.17, 11.21, 11.21, 11.21, 11.31, 10.94, 11.31, 11.31, 11.31, 10.94, 10.56, 10.56, 10.56, 10.18, 10.56, 10.56, 10.56, 10.94, 10.62, 10.62, 10.25, 10.25, 9.77, 9.77, 8.69, 8.02, 7.68, 7.76, 7.41, 6.68, 6.35, 6.35, 6.01, 6.01, 6.35, 6.35, 5.72, 5.72, 5.72, 5.37, 4.71, 4.65, 3.11, 3.6, 4.0, 5.21, 8.18, 9.75, 10.73, 11.18, 11.18, 11.91, 13.31, 14.4, 14.84, 15.18, 16.71, 24.86, 28.8, 27.78, 0.0, -14.39, -6.44, -3.53, -1.76, 2.28, 6.9, 8.58, 11.09, 11.09, 12.45, 12.45, 12.45, 5.98, 5.98, 6.7, 6.7, 6.7, 7.24, 7.51, 7.78, 8.24, 8.54, 8.54, 8.54, 9.17, 9.17, 9.17, 9.48, 10.36, 10.36, 10.36, 10.36, 10.69, 11.17, 11.17, 11.17, 11.17, 11.17, 10.82, 10.82, 11.31, 10.99, 10.62, 10.99, 11.31, 11.31, 10.94, 10.56, 10.56, 10.56, 10.18, 9.89, 10.25, 10.25, 10.25, 10.25, 10.25, 9.77, 9.77, 9.77, 9.36, 8.69, 8.02, 7.68, 7.35, 7.02, 6.68, 6.35, 6.35, 6.01, 6.01, 6.01, 5.37, 5.37, 5.37, 5.37, 5.37, 4.71, 4.65, 3.9, 3.11, 4.0, 5.21, 7.81, 8.8, 10.41, 11.18, 10.41, 10.41, 12.52, 13.75, 14.4, 15.08, 18.26, 22.75, 28.45, 29.12, 21.46, -16.22, -6.67, -3.53, -0.0, 1.84, 5.8, 8.66, 11.44, 11.88, 11.5, 11.5, 11.5, 6.45, 6.45, 6.45, 6.7, 6.45, 7.24, 7.24, 7.51, 8.24, 8.24, 8.54, 8.54, 9.17, 9.17, 9.17, 9.48, 9.8, 10.36, 10.36, 10.36, 10.36, 10.69, 11.17, 11.17, 11.17, 10.82, 10.82, 10.47, 10.47, 10.99, 10.62, 10.99, 10.99, 10.94, 10.94, 10.56, 10.56, 9.89, 9.89, 9.42, 9.77, 9.77, 9.77, 9.77, 9.77, 9.77, 9.77, 9.36, 9.36, 8.69, 8.02, 7.68, 7.35, 7.02, 7.02, 6.68, 6.35, 6.35, 6.01, 5.69, 5.37, 5.37, 5.05, 5.05, 5.37, 4.71, 4.36, 3.79, 3.55, 3.8, 4.96, 6.64, 6.95, 9.2, 9.6, 9.96, 8.58, 11.4, 12.52, 13.86, 15.2, 16.99, 20.56, 26.82, 29.63, 29.95, -16.99, -10.12, -1.98, -0.0, 1.84, 5.98, 10.3, 11.88, 12.45, 12.45, 12.45, 12.45, 5.64, 5.64, 5.64, 6.45, 6.97, 7.24, 7.24, 7.24, 7.24, 8.24, 8.24, 8.54, 8.54, 9.17, 9.17, 9.48, 9.48, 9.8, 10.36, 10.36, 10.36, 10.69, 10.69, 11.17, 10.82, 10.82, 10.82, 10.47, 10.47, 10.12, 10.12, 10.99, 10.47, 10.12, 9.77, 10.25, 9.89, 9.89, 9.42, 9.42, 9.77, 9.77, 9.77, 9.42, 9.42, 9.42, 9.36, 9.36, 9.36, 8.69, 8.02, 7.68, 7.35, 7.35, 7.02, 6.68, 6.35, 5.69, 5.69, 5.05, 5.05, 5.05, 5.35, 5.05, 5.0, 4.71, 4.29, 4.29, 3.47, 3.6, 3.8, 5.36, 5.63, 6.95, 9.2, 9.96, 9.96, 9.6, 11.03, 13.86, 14.66, 16.48, 19.17, 23.65, 26.8, 28.83, 22.8, -6.8, -5.6, -0.0, 4.15, 8.22, 11.2, 12.04, 11.6, 11.6, 11.6, 11.6, 5.43, 5.43, 5.43, 5.64, 6.97, 6.97, 6.97, 7.24, 7.24, 8.24, 8.24, 8.54, 8.54, 8.54, 8.54, 9.48, 9.8, 9.48, 10.36, 10.36, 10.36, 10.69, 10.69, 10.69, 10.82, 10.82, 10.47, 10.47, 10.47, 10.12, 10.12, 10.47, 10.47, 10.12, 9.77, 9.77, 9.42, 9.42, 9.42, 9.42, 9.42, 9.42, 9.42, 9.42, 9.42, 9.02, 9.02, 9.02, 9.02, 8.35, 8.02, 7.27, 7.27, 6.95, 6.64, 6.64, 6.32, 5.35, 5.35, 5.35, 5.35, 5.35, 5.05, 5.05, 5.0, 5.0, 4.56, 4.22, 3.47, 3.47, 2.9, 4.37, 5.36, 6.32, 8.8, 10.08, 10.73, 11.18, 11.62, 13.41, 14.75, 16.03, 18.72, 21.85, 24.59, 24.69, 25.09, 16.91, -12.79, -5.8, 3.68, 9.3, 11.21, 12.04, 11.6, 11.6, 11.6, 11.6, 5.43, 5.43, 5.43, 5.43, 6.2, 6.97, 6.97, 7.24, 7.24, 7.51, 8.24, 8.24, 8.54, 8.54, 8.54, 9.48, 9.48, 9.48, 9.48, 10.36, 10.36, 10.36, 10.69, 10.69, 10.36, 10.47, 10.47, 10.47, 10.12, 10.12, 10.12, 10.47, 10.47, 10.12, 9.77, 9.77, 9.42, 9.42, 9.42, 9.42, 9.42, 9.42, 9.42, 9.02, 8.69, 8.69, 8.69, 9.02, 8.69, 8.02, 7.59, 7.27, 7.27, 7.27, 6.95, 6.24, 5.94, 5.64, 5.64, 5.35, 5.35, 5.35, 5.05, 5.3, 4.94, 4.67, 4.22, 3.97, 3.68, 3.4, 3.4, 4.6, 5.1, 6.95, 7.44, 9.54, 10.73, 11.18, 11.62, 12.52, 14.3, 16.09, 18.33, 21.01, 23.19, 22.55, 23.75, 19.65, 14.3, -13.86, -0.0, 10.04, 12.27, 12.71, 13.01, 11.99, 11.99, 11.99, 5.43, 5.43, 5.43, 5.43, 6.2, 6.97, 6.97, 7.24, 7.24, 7.51, 8.24, 8.24, 8.54, 8.54, 8.54, 8.83, 9.48, 9.48, 9.48, 9.8, 10.36, 10.36, 10.36, 10.36, 10.36, 10.02, 10.02, 10.02, 9.69, 9.69, 9.69, 10.47, 10.12, 9.36, 9.36, 9.36, 9.02, 9.42, 9.08, 9.08, 9.42, 9.02, 8.69, 8.69, 8.35, 8.35, 8.35, 8.35, 7.9, 7.59, 7.27, 7.27, 7.27, 6.83, 6.53, 6.53, 6.24, 5.94, 5.64, 5.35, 5.35, 5.35, 5.35, 4.94, 4.94, 4.22, 3.91, 3.91, 3.91, 3.91, 3.4, 3.79, 3.72, 6.64, 7.44, 9.54, 9.97, 11.62, 12.07, 12.52, 13.41, 15.65, 17.43, 19.67, 21.85, 20.91, 22.0, 21.42, 17.53, 15.2, 15.2, 13.19, 13.41, 12.96, 13.41, 13.86, 13.86, 13.86, 5.43, 5.43, 5.43, 5.43, 6.2, 6.97, 6.97, 7.24, 7.24, 7.51, 8.24, 8.24, 8.54, 8.54, 8.54, 8.83, 9.48, 9.48, 9.48, 9.8, 10.36, 10.36, 10.36, 10.36, 10.36, 10.02, 10.02, 10.02, 9.69, 9.69, 9.69, 10.47, 10.12, 9.36, 9.36, 9.36, 9.02, 9.42, 9.08, 9.08, 9.42, 9.02, 8.69, 8.69, 8.35, 8.35, 8.35, 8.35, 7.9, 7.59, 7.27, 7.27, 7.27, 6.83, 6.53, 6.53, 6.24, 5.94, 5.64, 5.35, 5.35, 5.35, 5.35, 4.94, 4.94, 4.22, 3.91, 3.91, 3.91, 3.91, 3.4, 3.79, 3.72, 6.64, 7.44, 9.54, 10.73, 11.62, 12.07, 12.52, 13.41, 15.2, 16.99, 18.33, 19.84, 19.95, 20.48, 21.78, 19.84, 17.1, 15.65, 16.09, 15.65, 14.3, 13.86, 13.86, 13.86, 13.86]}, {"header": {"dx": 0.06612293990616946, "dy": 0.0552356325346848, "nx": 98, "ny": 59, "la1": 35.046912555036876, "la2": 31.78801023549047, "lo1": -121.43107172385933, "lo2": -114.95102361305473, "refTime": "2026041312", "parameterCategory": 1, "parameterNumber": 3}, "data": [-12.39, -12.39, -12.39, -12.79, -13.2, -12.79, -13.44, -14.11, -14.3, -14.69, -13.15, -10.24, -9.66, -8.94, -7.27, -5.95, -7.9, -4.6, -0.0, 0.0, 0.0, 0.0, 0.0, 0.0, 0.0, 0.0, 0.0, 0.0, 0.0, 1.98, 2.06, 2.45, 0.0, 0.0, -2.19, -6.71, -8.94, -9.3, -8.94, -8.58, -7.9, -6.2, -7.26, -7.19, -8.31, -7.97, -8.55, -9.34, -7.56, 0.0, 13.99, 13.97, 12.37, 11.88, 11.06, 10.3, 9.88, 7.71, 7.49, 6.47, 5.35, 6.17, 6.35, 7.38, 7.6, 7.0, 7.2, 6.34, 5.65, 5.09, 4.32, 3.99, 3.72, 3.9, 9.39, 10.75, 12.16, 15.2, 14.94, 11.06, 9.44, 6.2, 1.83, 2.06, 2.93, 8.85, 0.0, 0.0, 0.0, -1.65, -2.3, -3.75, -3.38, -2.8, 0.0, 1.02, 2.11, 3.53, -12.39, -11.97, -11.97, -12.39, -12.79, -12.79, -13.2, -13.88, -14.55, -14.75, -13.15, -11.5, -9.67, -9.6, -9.67, -7.9, -7.27, -8.22, -11.18, -10.28, -12.07, 0.0, 0.0, 0.0, 0.0, 0.0, 0.0, 0.0, 0.0, 2.45, 2.72, 5.64, 4.52, 3.32, 0.0, -3.25, -6.64, -7.15, -6.79, -7.87, -9.42, -8.1, -8.3, -8.94, -9.92, -10.17, -10.42, -8.2, -2.05, 10.12, 12.65, 11.68, 11.06, 10.75, 10.75, 10.3, 8.97, 8.64, 7.0, 6.02, 5.35, 5.64, 7.38, 7.16, 8.43, 8.05, 7.0, 5.99, 5.49, 5.23, 5.12, 4.79, 3.65, 3.49, 5.64, 9.22, 10.75, 15.2, 14.94, 11.06, 9.44, 6.2, 1.83, 2.06, 2.93, 8.85, 0.0, 0.0, 0.0, -1.65, -2.3, -3.75, -3.38, -2.8, 0.0, 1.02, 2.11, 3.53, -11.97, -11.97, -11.97, -11.97, -12.36, -13.19, -13.19, -13.62, -14.42, -14.7, -12.47, -11.45, -10.8, -11.28, -10.73, -7.59, -5.0, -8.22, -10.0, -12.07, -10.73, -11.18, -7.9, -5.8, 0.0, 0.0, 0.0, 0.0, 0.0, 0.0, 0.0, 3.07, 3.24, 3.58, 0.0, -1.76, -3.11, -5.86, -6.95, -6.98, -8.15, -9.21, -10.77, -12.03, -11.99, -11.2, -8.8, -2.05, 6.4, 9.44, 10.02, 10.02, 10.75, 10.75, 10.43, 10.3, 8.97, 7.2, 7.2, 5.62, 4.81, 6.17, 7.82, 8.85, 8.43, 8.46, 7.66, 7.2, 6.81, 6.32, 5.87, 4.23, 3.21, 1.88, 3.58, 8.18, 7.82, 15.78, 13.8, 11.38, 11.87, 8.58, 2.54, 2.37, 2.82, 8.53, 0.0, 0.0, -2.45, -3.07, -3.9, -4.07, -3.09, -1.25, 0.0, 2.32, 2.13, 2.13, -11.97, -11.97, -12.36, -11.97, -12.36, -12.74, -13.13, -13.59, -14.03, -13.57, -12.47, -12.02, -11.84, -11.18, -11.18, -11.18, 0.0, -8.53, -10.4, -11.03, -10.73, -10.73, -11.62, -10.4, -5.4, 0.0, 0.0, 0.0, 0.0, 0.0, -3.96, -4.38, -3.58, 0.0, -2.72, -4.48, -5.6, -4.48, -7.44, -9.48, -10.69, -12.56, -12.01, -10.51, -7.8, -5.23, 0.0, 3.93, 7.32, 7.32, 8.57, 9.73, 10.75, 11.2, 10.75, 10.01, 8.05, 7.0, 5.62, 4.6, 5.19, 5.99, 8.57, 9.6, 9.42, 8.97, 8.33, 7.99, 8.16, 7.34, 6.81, 4.82, 2.87, 0.0, 0.0, 0.0, 4.66, 15.61, 13.23, 10.05, 11.8, 12.79, 9.17, 3.82, 3.68, 12.07, 0.0, -3.04, -4.49, -4.66, -3.87, -2.89, -1.43, 0.0, 2.06, 2.81, 1.08, 1.08, -11.97, -11.97, -12.36, -12.36, -12.36, -12.74, -13.13, -13.13, -13.13, -12.79, -11.87, -11.46, -11.62, -11.18, -10.73, -10.4, -11.62, -8.53, -10.8, -11.71, -12.52, -11.18, -10.73, -12.07, -11.18, 0.0, 0.0, 0.0, 0.0, -2.6, -5.95, -9.3, -9.97, -9.27, -8.66, -8.94, -9.22, -7.93, -11.06, -14.31, -13.59, -10.7, -6.8, -3.47, 0.0, 0.0, 1.68, 3.2, 4.66, 6.6, 9.44, 10.43, 10.43, 11.2, 10.75, 9.33, 7.82, 6.02, 5.62, 4.18, 3.88, 7.32, 10.12, 10.52, 10.3, 9.74, 8.78, 8.78, 9.09, 8.78, 6.84, 5.51, 4.85, 3.59, -17.88, -13.19, 0.0, 15.2, 15.65, 5.81, 7.93, 13.86, 12.96, -0.0, -0.0, -7.9, -1.98, -3.81, -4.71, -4.91, -3.0, -1.13, 0.0, 0.0, 2.45, 1.43, 0.0, 0.0, -11.97, -11.97, -12.36, -12.36, -12.36, -12.74, -13.13, -12.82, -12.82, -12.07, -10.6, -10.58, -11.02, -10.73, -11.18, -11.18, -11.62, -12.07, -12.07, -12.52, -12.52, -11.91, -12.58, -12.96, -12.52, -11.87, -8.85, -7.19, -6.94, -6.7, -8.18, -9.83, -9.97, -9.27, -9.48, -9.17, -9.48, -8.51, -11.58, -15.25, -13.65, -10.12, -4.52, -1.68, 0.0, 0.0, 1.6, 3.39, 5.34, 5.63, 8.66, 10.12, 10.99, 10.43, 9.89, 7.38, 5.64, 5.19, 4.47, 4.05, 3.76, 7.69, 10.65, 11.54, 11.19, 10.25, 8.56, 7.21, 8.4, 6.91, 4.88, 5.29, 6.25, 6.1, 0.0, -7.6, 10.75, 14.75, 14.03, 8.18, -0.0, -12.96, -12.96, -6.94, -10.0, -11.4, -7.78, -5.63, -5.34, -4.21, -2.63, -1.17, -1.61, 0.0, 0.0, 0.0, -1.06, -1.15, -11.97, -11.97, -11.97, -12.36, -12.74, -13.13, -13.13, -12.82, -12.82, -11.31, -9.81, -9.81, -9.2, -9.2, -11.62, -11.18, -12.07, -11.87, -12.14, -12.35, -12.71, -14.3, -14.75, -15.08, -14.75, -14.11, -14.42, -12.79, -12.45, -11.18, -9.6, -8.91, -9.83, -7.27, -7.56, -9.8, -10.86, -8.87, -8.38, -10.73, -13.88, -11.6, -9.8, -6.6, -4.18, 0.0, 3.24, 5.23, 5.34, 6.6, 8.94, 9.8, 10.12, 8.31, 6.6, 5.99, 4.66, 4.11, 2.35, 3.22, 3.98, 9.17, 10.99, 11.38, 11.35, 9.43, 7.58, 5.01, 3.42, 2.72, 2.17, 3.0, 3.52, 3.83, 3.25, 6.64, 16.99, 14.9, 11.09, 0.0, -13.15, -13.59, -13.44, -11.99, -11.91, -11.71, -10.77, -8.4, -5.67, -5.15, -4.65, -4.28, -3.56, -2.54, -2.2, -3.01, -2.28, -2.4, -11.58, -11.97, -12.36, -12.74, -13.13, -12.82, -12.82, -12.82, -12.45, -10.94, -9.43, -9.43, -8.82, -8.94, -11.2, -11.18, -12.07, -12.58, -12.04, -12.04, -11.99, -11.5, -12.72, -15.53, -15.55, -14.6, -14.61, -15.49, -14.75, -12.72, -11.45, -12.07, -12.27, -10.41, -8.35, -9.36, -10.23, -8.41, -7.24, -8.22, -12.96, -13.44, -14.39, -12.33, -8.93, 0.0, 4.52, 6.35, 7.2, 8.93, 8.05, 10.12, 9.16, 7.1, 6.4, 5.02, 4.38, 2.63, 1.11, 2.32, 4.24, 8.38, 12.16, 10.05, 9.42, 7.26, 5.8, 1.58, 0.0, 0.0, 0.0, 0.0, 0.0, 1.0, 2.66, 9.6, 17.02, 14.18, 4.81, 0.0, -16.54, -14.84, -14.42, -14.11, -13.86, -13.96, -11.09, -9.42, -6.51, -6.3, -6.7, -7.51, -6.67, -4.98, -4.52, -4.38, -3.98, -3.85, -11.97, -12.36, -12.07, -12.45, -12.82, -12.82, -12.82, -12.82, -12.07, -10.56, -9.43, -9.05, -11.12, -12.04, -11.2, -11.87, -12.96, -12.58, -13.01, -12.58, -12.72, -11.16, -8.05, -11.44, -11.87, -10.79, -9.64, -13.15, -13.99, -13.86, -13.72, -15.08, -14.84, -13.15, -10.35, -9.3, -8.93, -8.93, -8.55, -10.73, -0.0, -14.3, -14.3, -12.96, 0.0, 11.62, 6.0, 6.6, 7.98, 9.61, 11.38, 9.16, 8.57, 7.1, 4.87, 3.25, 1.48, 1.13, 1.09, 1.16, 3.32, 8.58, 10.43, 9.92, 7.6, 7.08, 5.26, 2.94, 0.0, -1.93, -1.48, -1.12, -1.1, 0.0, 4.03, 13.28, 15.36, 8.28, 3.3, 1.83, -9.92, -14.79, -15.04, -13.75, -13.86, -12.66, -11.2, -9.84, -8.85, -8.53, -8.53, -10.04, -10.35, -11.17, -7.32, -5.31, -4.98, -6.0, -12.79, -12.07, -12.45, -12.45, -12.82, -12.82, -12.82, -12.82, -12.07, -10.56, -9.4, -9.76, -10.18, -11.88, -12.39, -11.99, -13.88, -13.99, -14.03, -12.71, -12.27, -12.04, -11.88, -11.17, -11.88, -10.38, -8.67, -10.73, -14.75, -14.16, -13.39, -15.61, -15.05, -13.23, -11.91, -9.96, -8.23, -7.51, -11.62, 0.0, -5.8, -5.8, -0.0, -0.0, -0.0, -0.0, 12.07, 9.17, 9.12, 11.06, 11.06, 10.47, 9.09, 6.8, 5.18, 3.1, 0.0, 0.0, 0.0, 0.0, 5.31, 11.38, 13.96, 12.01, 11.16, 8.68, 6.88, 5.13, 0.0, -4.12, -4.47, -3.13, -2.09, 0.0, 4.34, 14.79, 15.27, 3.69, 0.0, 0.0, 0.0, -16.99, -15.04, -12.42, -13.41, -13.77, -13.27, -11.88, -10.23, -10.41, -10.24, -11.09, -12.39, -13.32, -10.43, -7.13, -7.13, -7.44, -12.56, -12.07, -12.45, -12.45, -12.45, -12.82, -12.82, -12.45, -11.69, -10.12, -10.12, -10.48, -10.85, -11.35, -12.27, -13.28, -14.94, -14.11, -13.59, -15.12, -16.76, -16.91, -15.91, -13.56, -13.19, -10.8, -9.2, -10.08, -12.79, -13.57, -12.45, -12.04, -11.03, -10.4, -11.62, -11.28, -7.9, -5.0, 0.0, 0.0, -14.3, -9.48, -0.0, -0.0, -0.0, 7.59, 11.18, 11.45, 10.79, 11.09, 12.36, 12.33, 10.73, 9.24, 7.8, 5.01, 3.28, 0.0, -1.71, 0.0, 13.59, 16.85, 15.91, 15.53, 15.25, 13.59, 10.91, 8.4, 3.51, -3.69, -5.5, -5.62, -5.5, -2.57, 8.68, 15.65, 15.2, 0.0, -2.89, -2.98, -8.68, -16.54, -15.65, -14.3, -14.75, -15.53, -15.71, -13.89, -12.13, -11.6, -11.61, -12.39, -12.88, -13.59, -11.53, -8.66, -8.38, -9.48, -12.56, -12.56, -12.07, -12.45, -12.45, -12.45, -12.82, -12.45, -11.69, -10.48, -10.48, -10.85, -11.57, -11.17, -10.59, -10.41, -10.94, -11.9, -13.42, -13.92, -13.58, -13.2, -13.74, -14.39, -10.73, -10.37, -9.77, -6.7, -8.03, -8.23, -6.17, -2.1, 2.6, 4.2, 0.0, -6.17, -4.6, 0.0, 8.53, 0.0, 0.0, 0.0, 0.0, 0.0, 0.0, 9.39, 11.62, 11.87, 10.41, 11.16, 11.8, 12.01, 10.91, 10.9, 9.77, 7.47, 8.32, 3.59, 0.0, 13.86, 17.43, 17.81, 17.16, 17.46, 18.21, 18.11, 16.75, 14.09, 9.18, 3.38, -1.7, -6.28, -11.7, 0.0, 13.41, 13.41, 13.41, 10.43, -6.8, -13.99, -15.18, -15.27, -16.54, -16.09, -15.61, -15.77, -16.12, -15.69, -12.65, -12.39, -12.52, -12.07, -12.52, -13.34, -11.6, -10.47, -9.48, -11.6, -12.56, -12.56, -12.07, -12.45, -12.45, -12.45, -12.45, -12.07, -12.07, -10.85, -10.85, -11.21, -11.17, -11.03, -10.75, -11.44, -10.94, -10.23, -10.25, -10.12, -10.47, -9.64, -9.64, -9.17, -7.96, -6.94, -5.6, -5.18, -3.68, -2.94, -1.91, 0.0, 1.84, 1.76, 0.0, 0.0, 0.0, 7.9, 10.0, 8.22, 3.96, 4.1, 0.0, 0.0, 0.0, 0.0, 0.0, 0.0, 8.53, 5.6, 3.68, 3.96, 0.0, 2.15, 2.65, 2.79, 7.04, 8.17, 0.0, 12.72, 16.05, 17.35, 16.58, 16.99, 18.26, 18.8, 18.97, 16.43, 14.54, 13.34, 11.4, 6.51, -21.46, -0.0, 5.2, 13.41, 15.65, 16.54, -0.0, -11.06, -10.75, -11.06, -15.18, -16.09, -16.12, -12.33, -12.33, -11.7, 0.0, 10.12, -14.3, -12.35, -11.98, -12.52, -11.62, -10.99, -11.6, -0.0, -12.56, -12.56, -12.07, -12.07, -12.45, -12.45, -12.09, -11.72, -11.57, -11.21, -10.82, -11.17, -11.03, -10.75, -11.06, -11.38, -11.69, -11.36, -11.52, -10.63, -10.63, -10.12, -10.43, -9.87, -8.94, -7.44, -6.2, -4.97, -3.56, -2.45, -1.6, 0.0, 0.0, 0.0, 1.69, 1.84, 2.28, 5.7, 7.27, 3.39, 0.0, 0.0, 0.0, -3.53, -6.95, -10.28, -9.39, -10.73, -11.18, -8.22, -8.22, -6.2, -5.0, -6.45, -3.68, 0.0, 0.0, 2.02, 0.0, 12.96, 12.42, 16.09, 16.54, 16.54, 16.54, 16.22, 14.71, 12.33, 12.35, 13.28, 13.41, 12.05, 0.0, -20.39, -0.0, 10.12, 12.33, 16.99, -0.0, -5.65, -9.67, -13.76, -16.09, -15.2, -15.65, -13.59, -10.19, -3.9, 0.0, 0.0, -14.3, -12.58, -11.51, -12.07, -11.18, -12.27, -12.96, -0.0, -12.56, -12.56, -12.07, -12.07, -11.72, -12.09, -12.09, -12.09, -11.17, -11.17, -10.69, -10.69, -10.43, -10.75, -11.38, -10.99, -10.69, -11.38, -11.06, -10.47, -10.75, -10.22, -10.22, -9.12, -9.39, -8.2, -7.42, -5.81, -4.52, -3.25, -2.39, -2.28, -1.5, 0.0, 0.0, 1.93, 2.49, 4.4, 3.53, 2.39, 0.0, 0.0, -3.53, -4.8, -6.64, -9.39, -9.83, -9.83, -10.28, -10.28, -9.6, -5.7, -5.7, -3.8, 0.0, 0.0, -9.75, -5.8, -1.04, 12.27, 11.2, 12.71, 13.86, 14.3, 14.75, 14.75, 10.75, 10.12, 11.87, 13.59, 11.84, 6.78, 1.42, -12.65, -0.0, 11.7, 9.43, 8.8, 0.0, 0.0, -13.28, -15.99, -16.99, -15.2, -13.72, -15.2, -13.59, -6.6, 0.0, -6.4, -12.79, -13.41, -11.4, -11.62, -12.52, -12.96, -13.41, -13.41, -12.56, -12.56, -12.56, -11.72, -11.72, -11.72, -11.72, -12.09, -11.64, -10.69, -10.12, -10.43, -10.43, -10.1, -10.69, -10.99, -10.69, -11.7, -11.06, -10.77, -9.91, -9.91, -9.39, -8.91, -8.43, -7.98, -6.62, -6.62, -5.18, -4.27, -4.13, -3.36, -2.37, 0.0, 0.0, 1.93, 3.98, 3.98, 2.19, 0.0, 0.0, 0.0, 0.0, 0.0, 0.0, 0.0, 0.0, 0.0, 0.0, -6.64, -4.4, -3.11, 0.0, 0.0, 0.0, -6.32, -8.4, -7.27, 0.0, 11.6, 11.18, 11.03, 11.03, 10.8, 0.0, 0.0, 0.0, 12.52, 13.99, 10.65, 3.65, -1.71, -2.76, 0.0, -0.0, 16.39, 14.22, 12.61, 7.47, 4.77, 6.36, 0.0, -18.78, -17.88, -17.88, -13.44, -11.6, -9.8, -12.79, -14.3, -13.15, -12.07, -12.07, -11.2, -8.85, -12.96, -13.86, -13.86, -12.56, -12.56, -12.56, -11.35, -11.72, -11.72, -11.72, -11.64, -11.1, -10.43, -10.43, -9.8, -9.8, -10.1, -10.39, -10.69, -10.39, -10.33, -10.33, -9.73, -9.47, -8.93, -8.43, -7.76, -6.43, -6.43, -6.27, -6.27, -5.21, -5.36, -4.41, -4.41, -3.8, -3.04, -1.69, 0.0, 0.0, 0.0, 0.0, 0.0, -2.1, -1.84, 0.0, -3.8, -4.4, -4.4, 0.0, 0.0, 0.0, 0.0, 0.0, 0.0, 4.6, 0.0, 0.0, -4.4, -4.4, -2.39, 5.0, 11.2, 11.71, 10.73, 10.73, 10.73, 0.0, 0.0, -0.0, -0.0, 5.8, 0.0, -3.81, -7.64, -12.19, -0.0, -0.0, 18.85, 17.98, 15.95, 13.13, 11.16, 10.91, 9.98, 0.0, -12.96, -17.81, -14.79, -10.04, -4.38, -10.12, -12.79, -7.69, -2.93, 0.0, -3.14, -2.63, -6.0, -13.15, -13.15, -12.56, -12.56, -12.56, -12.17, -11.88, -11.9, -11.9, -10.77, -10.43, -10.43, -9.8, -9.8, -9.8, -10.1, -10.1, -9.8, -9.49, -10.05, -9.73, -9.47, -8.68, -8.2, -7.97, -6.6, -5.48, -5.34, -6.27, -5.49, -5.36, -5.5, -4.67, -4.93, -4.93, -3.8, -2.15, -1.39, -1.69, -1.69, -1.69, -2.02, -2.28, -2.39, -5.21, -5.46, -4.4, -4.6, 0.0, 0.0, 0.0, 0.0, 3.11, 3.11, 4.6, 3.25, 0.0, 0.0, 0.0, 2.49, 6.17, 7.9, 7.9, 6.2, 4.8, 0.0, 0.0, 0.0, -8.49, -9.83, -10.27, -7.88, -6.64, -8.14, -0.0, -0.0, 16.79, 17.97, 16.01, 12.85, 12.15, 11.16, 9.46, 7.87, 4.66, -12.33, -9.92, -3.25, 0.0, 0.0, 0.0, 0.0, 0.0, 2.63, 0.0, 0.0, -2.35, -2.35, -3.25, -3.25, -12.56, -12.56, -12.17, -11.88, -11.53, -11.53, -11.44, -10.77, -10.43, -10.43, -9.8, -9.8, -10.43, -9.8, -9.8, -10.3, -9.5, -9.77, -9.2, -7.66, -7.97, -8.2, -8.18, -8.29, -6.6, -6.52, -5.25, -6.14, -6.47, -4.66, -4.67, -4.8, -4.93, -4.8, -3.69, -2.76, -3.25, -3.46, -3.25, -3.53, -3.11, -3.49, -5.7, -5.7, -4.8, -4.6, 0.0, 0.0, 0.0, 0.0, 0.0, 3.25, 3.25, 3.25, 2.6, 2.6, 2.6, 2.71, 5.2, 5.2, 5.0, 6.2, 3.53, 0.0, 0.0, -4.0, -4.2, -7.44, -8.68, -8.68, -3.65, 4.93, 14.81, 12.19, 9.66, 6.31, 2.87, 1.97, 3.23, 6.05, 2.6, 1.28, -1.34, -6.16, -11.06, -7.59, -2.63, 2.13, 0.0, 0.0, 0.0, 0.0, 0.0, 0.0, 0.0, 0.0, 0.0, 0.0, -12.56, -12.56, -11.88, -11.88, -12.11, -11.09, -10.77, -10.77, -10.43, -9.8, -10.43, -10.43, -9.87, -9.22, -9.22, -8.94, -9.22, -8.94, -10.02, -8.83, -9.61, -8.68, -8.43, -8.77, -8.53, -8.21, -7.4, -6.18, -5.99, -4.95, -5.09, -5.09, -5.09, -5.23, -5.09, -4.38, -3.47, -3.33, -3.2, -2.65, -2.82, -2.06, -2.39, -2.59, -2.28, -3.39, -4.4, 0.0, 0.0, 0.0, 0.0, 0.0, 0.0, 3.39, 2.39, 2.1, 4.48, 4.8, 4.8, 5.2, 5.0, 4.8, 3.39, 0.0, 0.0, -4.6, -4.4, -5.7, -4.8, -1.71, 1.88, 7.42, 8.57, 5.25, 2.4, 0.0, -4.12, -8.03, -2.96, 0.0, 0.0, 0.0, 0.0, -1.6, -7.82, -7.13, 0.0, 6.0, 4.1, 3.04, 0.0, -2.35, -1.72, 0.0, 0.0, 0.0, 0.0, 0.0, -12.17, -12.56, -11.88, -12.11, -12.11, -11.09, -10.77, -10.12, -10.43, -10.43, -10.43, -9.87, -9.22, -9.22, -9.49, -9.49, -9.49, -8.66, -7.62, -8.83, -8.43, -8.64, -8.43, -7.97, -6.8, -7.42, -6.37, -6.16, -6.34, -6.52, -6.14, -5.23, -5.23, -5.23, -5.23, -4.81, -4.24, -3.47, -3.2, -2.6, -2.49, -2.02, -2.06, -2.06, -2.28, -2.19, -3.11, -3.25, -3.25, 0.0, 0.0, 0.0, 0.0, 0.0, 2.82, 2.1, 4.32, 5.75, 5.2, 4.8, 4.8, 2.6, 0.0, 0.0, 0.0, -5.0, -3.25, 0.0, 1.28, 2.92, 5.49, 7.81, 7.32, 0.0, -4.45, -5.2, -12.33, -13.41, -11.06, -6.74, -3.16, -1.09, 0.0, 0.95, 0.0, 0.0, 2.72, 6.4, 3.88, 3.04, 0.0, -4.52, -1.83, -1.96, 0.0, 0.0, 0.0, 0.0, -12.17, -11.88, -12.39, -12.11, -11.53, -11.09, -10.43, -10.12, -10.43, -10.43, -9.87, -9.22, -9.22, -9.22, -9.22, -9.49, -8.94, -8.41, -8.31, -8.18, -8.11, -8.11, -7.42, -7.0, -7.4, -7.18, -6.14, -5.81, -6.16, -6.34, -6.52, -6.52, -5.56, -5.56, -5.23, -5.09, -4.66, -4.1, -3.33, -2.6, -2.6, -2.76, -2.02, -2.06, -2.06, -2.28, -2.19, -2.49, -3.25, -3.25, 0.0, 0.0, 0.0, 0.0, 0.0, 2.82, 6.71, 7.54, 4.15, 2.49, 2.28, 2.02, 0.0, 0.0, 0.0, 0.0, 0.0, 5.0, 6.45, 7.44, 9.6, 13.3, 12.0, 0.0, -10.35, -10.3, -14.13, -16.51, -16.02, -12.76, -9.19, -5.3, -1.2, 1.0, 2.15, 2.98, 2.15, 2.28, 0.0, 1.03, 0.0, -1.96, -2.09, 0.0, 0.0, 0.0, -2.57, -2.57, -12.17, -12.17, -11.88, -11.53, -11.53, -10.43, -10.43, -10.12, -9.8, -9.8, -9.49, -9.49, -9.22, -9.22, -8.68, -8.94, -8.94, -8.68, -7.93, -7.73, -7.63, -7.42, -6.99, -6.8, -7.2, -7.18, -7.37, -6.31, -6.14, -5.81, -6.16, -6.34, -6.34, -6.34, -6.34, -5.41, -5.26, -4.24, -3.68, -3.39, -2.88, -2.88, -2.19, -2.15, -2.15, -2.21, -1.84, -2.02, -2.49, -2.6, -3.53, 0.0, 0.0, 0.0, 0.0, 0.0, 5.4, 6.44, 4.48, 1.75, 0.0, 0.0, 0.0, 0.0, 0.0, 3.68, 7.9, 9.6, 10.6, 9.97, 11.5, 9.42, 2.71, -5.31, -4.8, -8.0, -12.52, -14.9, -16.33, -15.56, -12.4, -9.2, -4.81, -2.5, 0.0, 1.41, 0.0, 0.0, 0.0, 1.58, 0.0, -2.72, -4.66, -2.43, -2.43, -4.81, -4.05, -4.05, -11.88, -11.88, -11.88, -11.53, -10.94, -10.94, -9.8, -10.12, -9.8, -9.8, -9.49, -9.49, -9.49, -8.68, -8.94, -8.94, -8.94, -8.18, -8.18, -7.73, -7.42, -7.63, -6.8, -6.4, -6.6, -7.2, -7.6, -7.37, -6.47, -6.14, -6.34, -5.99, -6.16, -6.16, -6.16, -6.16, -6.16, -4.66, -3.82, -3.53, -2.99, -2.88, -3.07, -2.25, -2.15, -2.31, -3.19, -1.84, -2.28, -2.82, -2.82, -2.82, -3.68, 0.0, 0.0, 0.0, 0.0, 2.93, 4.48, 2.1, 0.0, -2.17, -2.6, 0.0, 3.53, 5.0, 7.9, 12.07, 11.18, 10.73, 0.0, -1.42, 1.58, 11.29, 24.14, 0.0, -12.96, -12.07, -13.88, -14.53, -14.79, -11.93, -9.5, -7.59, -5.98, -3.24, -1.65, 0.0, 0.0, 7.44, 4.01, 0.0, -6.4, -10.12, -9.22, -8.18, -8.18, -8.18, -11.35, -11.35, -10.94, -10.94, -10.59, -10.59, -9.8, -9.5, -9.5, -9.8, -9.49, -9.49, -9.49, -8.94, -8.94, -8.94, -8.18, -8.18, -8.18, -7.97, -8.2, -7.84, -7.4, -7.0, -6.6, -6.8, -7.4, -7.6, -6.31, -6.69, -6.52, -6.34, -6.16, -5.99, -5.99, -5.99, -5.99, -5.81, -4.21, -3.91, -3.19, -3.19, -3.07, -2.95, -2.15, -3.16, -2.41, -2.6, -2.71, -2.71, -2.95, -2.45, -2.71, -3.39, -3.25, 0.0, 0.0, 0.0, 0.0, 2.19, 0.0, 0.0, 0.0, 0.0, 4.8, 4.8, 10.4, 12.52, 12.52, -6.17, -5.2, -4.12, 1.75, 8.48, 10.36, 8.09, -5.31, -16.09, -13.67, -13.53, -14.75, -14.03, -12.45, -11.06, -7.82, -5.34, -1.94, 0.0, 2.79, 12.33, 14.37, 9.42, 0.0, -12.79, -12.39, -10.82, -9.8, -9.8, -10.94, -10.94, -10.59, -10.59, -10.59, -10.02, -10.36, -9.5, -9.8, -9.22, -9.22, -9.49, -8.94, -9.2, -9.2, -8.94, -8.18, -8.18, -8.18, -8.43, -8.2, -7.84, -7.6, -7.4, -7.2, -6.8, -7.0, -7.4, -6.69, -6.69, -6.69, -6.52, -6.52, -6.16, -5.99, -5.99, -5.99, -5.99, -4.66, -3.91, -4.06, -3.19, -3.07, -3.16, -3.16, -3.29, -2.51, -2.51, -2.31, -3.16, -3.16, -2.71, -4.48, -2.93, -2.82, -3.53, -3.39, -3.53, -3.82, 0.0, 0.0, 0.0, 0.0, 0.0, 0.0, 8.22, 11.2, 12.3, 0.0, -4.4, -5.2, -2.98, 0.0, 6.7, 11.1, 12.99, 4.35, -19.59, -16.09, -12.96, -15.12, -15.61, -13.99, -12.89, -9.44, -6.16, -2.21, 0.0, 5.98, 13.8, 15.16, 11.84, 7.4, -10.12, -13.41, -13.59, -11.5, -11.5, -10.59, -10.59, -10.59, -10.59, -10.02, -10.36, -10.36, -10.12, -9.8, -9.22, -9.22, -9.49, -8.94, -9.2, -9.2, -8.43, -8.18, -8.18, -8.18, -8.43, -7.42, -7.63, -7.4, -7.6, -7.4, -7.2, -6.16, -6.34, -6.52, -6.52, -6.52, -6.34, -6.34, -6.52, -6.93, -6.74, -6.56, -5.62, -5.46, -4.97, -4.17, -4.17, -3.29, -3.16, -3.29, -3.42, -3.29, -3.16, -3.16, -3.16, -3.16, -3.16, -2.49, -2.95, -2.19, -2.71, -2.93, -3.53, -3.25, -2.71, 0.0, 0.0, 0.0, 0.0, 0.0, 8.22, 11.2, 5.4, 0.0, -1.33, -3.29, -3.47, -1.34, 1.61, 9.51, 11.19, 8.48, -13.34, -18.85, -12.52, -12.52, -14.26, -14.75, -13.7, -12.42, -9.73, -7.2, 0.0, 9.39, 13.42, 13.39, 10.51, 9.66, 4.42, -13.57, -14.3, -14.03, -14.03, -10.59, -10.59, -10.59, -10.02, -10.02, -10.36, -9.8, -10.12, -10.43, -9.22, -9.22, -9.49, -8.94, -9.2, -9.2, -8.68, -8.18, -8.18, -7.66, -7.88, -7.42, -7.63, -7.84, -7.4, -7.4, -6.52, -6.34, -6.16, -6.16, -6.34, -6.34, -6.34, -6.34, -6.34, -6.74, -6.74, -6.74, -5.62, -5.62, -5.3, -4.65, -4.01, -3.29, -3.16, -3.29, -3.29, -3.29, -3.16, -3.16, -3.16, -3.16, -2.41, -2.41, -3.25, -3.51, -4.48, -4.48, -2.82, -3.39, -2.82, -2.37, -1.44, 0.0, 0.0, 0.0, 9.17, 8.85, 3.68, 0.0, 0.0, 0.0, -2.24, -3.79, -3.16, -1.7, -1.34, 0.0, 0.0, -20.82, -18.33, -10.73, -11.09, -11.89, -13.88, -12.85, -13.39, -13.59, 5.09, 11.38, 10.75, 9.77, 9.24, 9.26, 7.44, 4.5, -8.68, -15.65, -15.65, -10.59, -10.59, -10.02, -10.02, -10.02, -10.36, -9.8, -10.12, -10.43, -9.22, -9.22, -8.94, -8.94, -9.2, -9.2, -8.68, -8.43, -7.43, -7.66, -7.42, -7.42, -7.42, -7.63, -7.4, -6.52, -6.52, -6.34, -6.16, -6.16, -6.16, -6.34, -6.34, -6.34, -6.34, -6.74, -6.74, -6.74, -6.74, -5.62, -5.62, -4.97, -4.01, -4.3, -4.24, -2.93, -2.6, -3.39, -3.25, -3.53, -3.16, -3.29, -3.16, -3.16, -3.68, -3.81, -3.68, -4.1, -4.65, -2.82, -5.2, -5.4, -2.82, -2.19, 0.0, 8.22, 10.79, 9.48, 2.93, 0.0, -1.23, -0.99, -1.04, -3.72, -8.05, -11.7, -10.41, -6.93, -4.08, -8.06, -21.2, -17.85, -14.95, -14.25, -12.24, -13.41, -13.86, -10.12, 8.43, 8.05, 8.05, 8.05, 8.43, 7.49, 8.4, 6.94, 4.73, -3.16, -3.16, -10.99, -10.99, -10.02, -10.02, -10.02, -9.8, -9.8, -10.12, -10.43, -9.22, -9.22, -8.68, -8.94, -9.2, -9.2, -8.68, -7.88, -7.66, -7.66, -7.21, -7.42, -7.21, -7.42, -7.63, -6.74, -6.93, -6.74, -6.56, -6.16, -6.16, -6.16, -6.16, -6.16, -6.16, -6.56, -6.56, -6.74, -6.74, -6.56, -5.62, -5.67, -4.81, -4.3, -4.13, -3.67, -4.24, -3.32, -4.12, -3.53, -3.39, -3.39, -3.53, -3.82, -4.38, -4.24, -3.82, -3.39, -3.82, -3.96, -5.4, -4.32, -3.32, -2.28, 0.0, 11.62, 8.85, 7.69, 2.63, 0.0, -3.45, -2.93, -1.01, -1.17, -7.06, -12.96, -12.38, -8.4, -4.91, -2.32, -4.04, -13.95, -14.78, -16.19, -16.27, -13.81, -6.4, 2.43, 5.02, 4.81, 5.49, 6.34, 7.6, 6.71, 7.7, 7.11, 6.47, 3.9, 3.9, -10.47, -10.47, -10.47, -10.47, -10.02, -9.8, -9.8, -10.12, -10.43, -9.87, -9.22, -9.22, -8.94, -9.2, -9.2, -8.68, -8.68, -7.66, -7.66, -7.21, -7.21, -7.21, -7.21, -7.42, -6.74, -6.74, -6.74, -6.56, -6.37, -5.99, -6.16, -6.16, -5.99, -6.37, -6.37, -6.37, -6.56, -6.56, -6.56, -7.0, -5.85, -5.16, -4.3, -3.85, -4.13, -4.08, -5.28, -4.98, -4.28, -4.62, -4.3, -4.3, -4.47, -3.96, -3.96, -3.82, -4.3, -4.47, -3.53, -5.6, -5.2, -4.48, -2.93, 0.0, 0.0, 0.0, 0.0, 0.0, 0.0, -2.95, -4.2, -2.08, 0.0, 0.0, -10.92, -12.86, -9.69, -3.62, -2.65, -3.19, -4.3, -6.79, -4.75, -3.33, 0.0, 3.37, 4.16, 5.11, 4.34, 5.19, 5.49, 7.0, 6.14, 5.37, 6.49, 6.05, 5.61, 5.61, -10.47, -10.47, -10.47, -10.47, -9.97, -9.8, -9.8, -10.12, -10.43, -9.87, -9.22, -9.22, -8.68, -8.94, -9.2, -8.68, -8.68, -8.68, -7.88, -7.66, -7.66, -7.21, -7.42, -7.42, -7.42, -6.74, -6.74, -6.37, -6.72, -6.4, -6.37, -6.56, -6.37, -6.37, -6.18, -6.37, -6.37, -6.56, -7.0, -7.0, -7.0, -5.5, -4.47, -3.85, -3.85, -3.85, -3.82, -4.58, -4.28, -4.43, -4.58, -4.64, -4.3, -4.47, -4.47, -4.47, -4.47, -4.01, -4.01, -4.01, -4.93, -4.48, -5.0, 0.0, 0.0, -7.9, -10.73, -5.4, -1.77, 0.0, -1.52, -1.52, 0.0, 1.68, -3.66, -13.41, -12.33, -3.44, -2.64, -3.51, -2.72, -1.63, 1.87, 4.67, 5.51, 5.51, 4.06, 3.9, 3.69, 4.52, 5.02, 5.63, 4.66, 4.47, 5.8, 5.25, 4.75, 4.75, -10.47, -10.47, -10.47, -10.47, -9.97, -10.3, -9.8, -10.12, -10.43, -9.87, -9.87, -9.87, -8.68, -8.68, -9.2, -9.2, -8.68, -8.68, -8.68, -7.66, -7.88, -7.88, -7.42, -7.21, -7.42, -7.42, -7.42, -7.21, -5.99, -6.54, -6.4, -6.37, -6.56, -6.56, -6.37, -6.37, -6.37, -6.8, -7.0, -7.0, -7.0, -6.6, -4.81, -4.01, -3.85, -4.01, -4.47, -4.99, -3.82, -4.24, -4.1, -4.64, -4.3, -4.3, -4.3, -4.47, -4.47, -4.01, -4.68, -4.87, -4.17, -5.0, -5.6, 0.0, 0.0, -11.62, -11.18, -8.93, -2.37, 0.0, 0.0, 0.0, -2.16, -2.07, 0.0, -2.43, -10.75, -7.19, -5.18, -4.01, -2.79, 0.0, 5.65, 8.97, 6.66, 4.88, 3.07, 2.38, 2.72, 3.76, 3.68, 4.1, 3.25, 1.34, 2.15, 3.58, 4.1, 4.1, -10.12, -10.12, -10.47, -9.97, -9.97, -10.3, -9.8, -10.12, -10.12, -9.87, -9.87, -9.87, -9.87, -8.68, -8.94, -9.2, -9.2, -8.43, -8.43, -8.68, -7.88, -7.88, -7.88, -7.21, -7.21, -7.42, -7.42, -7.21, -7.21, -6.18, -6.6, -6.6, -6.18, -6.37, -6.37, -6.37, -6.8, -6.8, -7.0, -7.0, -7.0, -6.8, -6.0, -4.13, -3.85, -4.01, -4.47, -4.81, -4.64, -3.82, -3.82, -4.47, -4.13, -4.3, -4.3, -4.3, -4.17, -4.01, -4.68, -4.17, -4.1, -5.4, -6.7, -3.82, -4.8, -7.9, -9.3, -8.94, -5.2, 0.0, 0.0, 0.0, -2.81, -4.15, -1.31, 3.6, 2.61, -3.07, -4.81, -5.98, -5.37, 0.0, 10.19, 10.61, 6.47, 2.12, 1.21, 1.18, 1.78, 2.72, 4.1, 2.63, 0.0, 0.0, 0.0, 1.89, 2.65, 2.65, -10.12, -10.12, -10.47, -9.97, -9.97, -9.97, -10.3, -10.12, -10.12, -9.87, -9.87, -9.87, -9.87, -9.34, -8.94, -9.2, -8.94, -8.94, -8.43, -8.68, -8.68, -8.68, -7.88, -7.88, -7.21, -7.21, -7.42, -7.21, -7.21, -7.21, -6.99, -7.21, -7.21, -6.4, -6.6, -6.8, -6.8, -6.8, -6.8, -7.0, -7.0, -6.8, -6.2, -4.47, -3.85, -3.85, -4.47, -4.64, -4.64, -4.3, -4.3, -4.3, -4.13, -4.13, -4.3, -4.3, -4.3, -4.01, -4.3, -4.3, -4.44, -4.1, -5.4, -5.4, -6.7, -6.45, -5.0, -5.75, -3.68, -1.55, 0.0, 0.0, 0.0, -2.47, 0.0, 5.23, 6.39, 3.06, -1.3, -6.54, -9.39, 11.38, 15.27, 7.0, 2.21, 0.0, 0.0, 0.0, 1.25, 1.66, 1.9, 0.0, 0.0, -1.77, -1.68, -1.42, 0.98, 0.98, -10.12, -10.12, -10.47, -9.97, -9.97, -9.97, -10.3, -9.8, -10.12, -9.57, -9.87, -9.87, -9.87, -9.87, -8.68, -8.94, -8.94, -8.94, -8.94, -8.68, -8.68, -8.68, -8.68, -7.88, -7.88, -7.21, -7.21, -7.21, -6.99, -6.99, -6.99, -6.99, -7.21, -6.98, -6.4, -6.4, -6.6, -6.8, -6.8, -6.8, -6.8, -6.8, -5.5, -4.64, -3.69, -4.17, -4.64, -4.47, -4.64, -4.3, -4.13, -4.3, -4.3, -4.13, -4.13, -4.3, -4.3, -4.13, -4.13, -4.13, -4.13, -4.25, -3.96, -5.0, -5.2, -6.7, -3.39, -2.19, -1.91, 0.0, 0.0, 1.21, 1.69, 1.37, 0.0, 0.0, 5.1, 4.75, 0.0, -4.12, -10.41, 15.2, 0.0, 0.0, -2.2, -1.66, -1.33, 0.0, 0.0, 0.0, 0.0, 0.0, 0.0, -2.09, -1.68, -1.42, 0.0, 0.0, -10.12, -10.12, -10.47, -9.97, -9.97, -9.97, -10.3, -10.3, -10.12, -9.57, -9.57, -9.87, -9.87, -9.87, -9.87, -8.94, -8.94, -8.94, -8.94, -9.2, -9.2, -8.68, -8.68, -7.88, -7.66, -7.66, -7.21, -7.21, -6.99, -6.99, -6.99, -6.99, -7.21, -6.98, -6.2, -6.2, -6.4, -6.6, -6.6, -6.8, -6.8, -6.8, -5.73, -4.24, -4.3, -4.47, -4.47, -4.3, -4.47, -4.47, -4.13, -4.13, -4.3, -4.13, -4.13, -4.3, -4.3, -4.13, -4.13, -4.13, -4.13, -4.25, -3.82, -5.0, -3.68, -3.82, -2.49, -2.19, -1.91, 0.0, 1.5, 2.63, 3.16, 3.84, 0.0, -7.14, -4.45, -1.09, -0.86, -1.16, 0.0, 0.0, -5.6, -7.51, -6.44, -5.11, -4.71, -3.68, -2.02, 0.0, 0.0, 0.0, 0.0, -2.15, -2.21, -3.39, -2.88, -1.34, -10.12, -10.12, -10.12, -10.47, -9.97, -9.97, -10.3, -10.3, -10.12, -10.12, -9.57, -9.57, -9.57, -9.57, -9.87, -9.49, -9.49, -8.94, -8.94, -9.2, -9.2, -9.2, -8.68, -8.68, -7.88, -7.66, -7.66, -7.66, -7.43, -7.43, -7.21, -7.21, -7.21, -6.2, -6.2, -6.2, -6.2, -6.4, -6.6, -6.6, -6.6, -6.8, -6.42, -4.75, -3.67, -4.13, -4.3, -4.47, -4.64, -4.64, -5.2, -5.0, -4.8, -4.6, -4.6, -4.8, -4.8, -4.6, -4.6, -4.8, -3.95, -4.25, -5.4, -2.6, -2.6, -2.71, -2.71, -1.84, 0.0, 0.0, 1.91, 2.13, 2.89, 3.09, 4.27, -5.42, -13.92, -8.0, -3.6, 0.0, 0.0, -5.09, -8.85, -9.17, -8.1, -6.65, -7.69, -6.2, -4.52, -2.43, -2.5, -2.5, -2.5, -2.21, -4.3, -3.39, -3.24, -2.88, -10.48, -10.48, -10.12, -10.47, -9.97, -9.97, -9.97, -10.3, -10.12, -10.12, -10.12, -9.57, -9.57, -9.57, -9.87, -9.87, -9.49, -9.49, -8.94, -8.94, -9.2, -9.2, -9.2, -8.43, -7.66, -7.43, -7.43, -7.43, -7.43, -7.43, -7.21, -7.21, -7.21, -6.2, -6.2, -6.2, -6.2, -6.2, -6.4, -6.4, -7.06, -7.06, -6.0, -5.14, -4.24, -4.81, -5.16, -5.16, -5.8, -5.8, -5.6, -5.4, -5.0, -4.6, -4.6, -4.6, -4.6, -4.6, -4.6, -4.6, -4.6, -4.92, -4.2, -4.15, -2.71, -2.71, -2.02, -2.19, 0.0, 0.0, 1.98, 1.71, 0.0, 2.96, 8.42, 7.92, -7.77, -10.25, -6.9, 0.0, 0.0, -11.38, -12.33, -11.38, -9.48, -9.8, -8.94, -8.58, -5.31, -2.89, -2.5, -2.5, -2.5, -4.3, -4.3, -4.42, -3.9, -3.24, -10.48, -10.48, -10.12, -10.12, -10.47, -10.47, -9.97, -10.3, -10.3, -10.63, -10.12, -10.12, -9.57, -9.57, -9.87, -9.87, -9.49, -9.49, -8.94, -8.94, -8.94, -8.94, -9.2, -9.2, -7.66, -7.43, -7.43, -7.43, -7.43, -7.43, -7.21, -6.98, -6.98, -6.98, -6.98, -6.2, -6.2, -6.2, -6.2, -6.2, -6.85, -6.6, -6.2, -5.2, -5.14, -5.8, -5.92, -6.85, -6.64, -6.0, -6.0, -5.6, -5.2, -4.8, -4.4, -4.4, -4.6, -4.6, -4.4, -4.6, -4.92, -4.92, -5.6, -4.15, -5.0, -2.71, -3.25, -2.82, 0.0, 0.0, 0.0, 0.0, 0.0, 1.53, 6.31, 9.74, 10.86, 2.06, -12.01, -5.8, -13.19, -15.19, -16.1, -16.87, -13.03, -10.82, -11.44, -10.12, -8.85, -5.48, -4.66, -4.81, -4.81, -4.3, -4.42, -5.09, -5.09, -5.09, -10.48, -10.48, -10.48, -10.12, -10.12, -10.47, -10.47, -10.3, -10.3, -10.3, -10.3, -10.12, -10.12, -9.57, -9.57, -9.87, -9.22, -9.49, -9.22, -8.94, -8.94, -8.94, -8.94, -8.16, -8.16, -7.43, -7.43, -7.43, -7.43, -7.43, -7.21, -6.98, -6.98, -6.98, -6.76, -6.98, -6.2, -6.2, -6.2, -6.2, -6.4, -6.4, -6.2, -5.4, -5.2, -5.6, -5.92, -6.64, -6.21, -6.21, -6.21, -5.78, -5.35, -4.4, -4.4, -4.4, -4.4, -4.71, -4.71, -4.92, -4.92, -4.92, -4.4, -4.32, -5.0, -2.71, -2.71, -2.71, 0.0, 0.0, 0.0, 0.0, 0.0, 1.2, 3.58, 5.27, 10.46, 13.19, 9.47, 0.0, -15.19, -18.33, -20.16, -22.05, -18.08, -12.45, -12.87, -11.09, -8.58, -7.59, -4.66, -4.81, -4.18, -5.99, -5.09, -2.65, -2.65, -2.65, -10.48, -10.48, -10.48, -10.12, -10.12, -10.47, -10.47, -10.47, -10.82, -10.3, -9.8, -9.8, -10.12, -10.12, -10.12, -9.87, -9.22, -9.22, -9.22, -8.94, -8.94, -8.94, -8.16, -8.16, -7.92, -7.68, -7.43, -7.43, -7.43, -7.43, -7.21, -6.98, -6.98, -6.76, -6.76, -6.76, -6.2, -6.2, -6.2, -6.2, -6.4, -7.21, -6.2, -5.6, -5.4, -5.6, -6.0, -6.21, -5.78, -5.57, -5.35, -5.35, -4.92, -4.5, -4.5, -4.5, -4.71, -4.71, -4.71, -4.71, -4.71, -4.71, -5.06, -5.98, -5.0, -2.71, -2.82, -2.82, 0.0, 0.0, 0.0, 0.0, 0.0, 0.0, 1.25, 2.57, 6.13, 11.53, 14.89, 12.29, 0.0, -21.01, -20.56, -21.9, -19.67, -13.23, -13.15, -10.73, -10.12, -7.59, -6.6, -7.32, -7.54, -6.16, -4.3, -4.3, -4.3, -4.3, -10.12, -10.12, -10.48, -10.12, -10.12, -10.12, -10.47, -10.47, -10.47, -10.36, -9.8, -9.8, -10.12, -10.12, -10.12, -9.87, -9.22, -9.22, -9.22, -9.22, -8.16, -8.16, -8.16, -8.16, -8.16, -7.92, -7.43, -7.43, -7.43, -7.43, -7.21, -7.21, -6.98, -6.98, -6.76, -6.76, -6.0, -6.2, -6.2, -6.98, -7.21, -7.21, -6.98, -5.8, -5.4, -5.4, -5.6, -5.6, -5.57, -5.14, -4.71, -5.04, -5.04, -4.5, -4.5, -4.5, -4.5, -4.5, -4.5, -4.5, -4.83, -4.83, -4.83, -4.56, -4.32, -5.0, -2.71, -2.6, 0.0, 0.0, 0.0, 0.0, 0.0, 0.0, 0.0, 2.8, 4.34, 8.14, 11.0, 14.1, 15.2, 0.0, -23.69, -21.9, -20.12, -15.2, -12.71, -12.45, -10.47, -8.66, -8.43, -6.88, -7.32, -5.99, -5.99, -5.81, -5.81, -5.81, -10.12, -10.12, -9.77, -10.12, -10.12, -10.12, -10.47, -10.47, -10.47, -10.36, -10.36, -9.8, -10.12, -10.12, -10.12, -9.8, -9.22, -9.22, -9.22, -9.22, -8.46, -7.92, -8.16, -8.16, -7.92, -7.92, -7.92, -7.43, -7.43, -7.43, -7.21, -7.21, -6.98, -6.98, -6.76, -6.76, -6.76, -6.98, -6.98, -6.98, -6.98, -7.21, -6.98, -6.76, -5.6, -5.78, -5.99, -5.99, -5.78, -6.0, -5.52, -4.8, -4.8, -4.83, -4.28, -4.5, -4.5, -4.5, -4.5, -4.83, -4.83, -4.83, -4.6, -4.83, -4.56, -4.15, -2.6, -2.39, -2.49, 0.0, -1.76, 0.0, 0.0, 0.0, 0.0, 1.63, 3.24, 4.32, 8.28, 10.42, 13.48, 14.16, -17.7, -22.8, -22.8, -16.54, -12.79, -11.6, -10.79, -10.12, -8.31, -6.0, -6.4, -6.6, -6.6, -2.81, -2.81, -2.81, -9.77, -9.77, -9.77, -10.12, -10.12, -10.12, -10.12, -10.47, -10.02, -10.36, -10.36, -9.8, -9.8, -10.12, -9.5, -9.5, -9.5, -8.94, -8.94, -8.2, -8.46, -7.92, -7.92, -8.16, -8.16, -7.92, -7.68, -7.43, -7.43, -7.43, -7.43, -7.21, -7.21, -6.98, -6.76, -6.76, -6.76, -6.76, -6.98, -6.98, -6.98, -6.98, -7.44, -7.2, -6.96, -6.48, -6.72, -6.72, -6.72, -6.24, -5.76, -5.04, -5.13, -5.13, -4.6, -4.83, -4.83, -4.6, -4.6, -4.6, -4.6, -4.6, -4.96, -4.96, -4.34, -4.15, -4.6, -2.49, -2.6, -2.49, -2.6, 0.0, 0.0, 0.0, 0.0, 1.83, 3.39, 4.7, 7.57, 9.0, 10.75, 13.98, 9.61, -24.99, -25.03, -17.7, -14.61, -11.92, -11.26, -10.01, -5.8, 0.0, 0.0, 0.0, 0.0, 0.0, 0.0, 0.0, -9.77, -9.77, -9.77, -9.77, -10.12, -10.12, -9.69, -10.02, -10.02, -10.02, -10.36, -10.36, -9.8, -9.5, -9.5, -9.5, -9.5, -8.94, -8.94, -8.2, -8.46, -8.46, -8.16, -8.16, -8.16, -7.92, -7.68, -7.44, -7.21, -7.21, -7.43, -7.43, -7.21, -7.44, -7.2, -6.76, -6.76, -6.76, -6.76, -6.76, -6.76, -7.44, -7.44, -7.2, -6.96, -6.72, -6.96, -6.72, -6.72, -6.24, -5.76, -5.52, -5.38, -5.13, -5.13, -4.6, -4.6, -4.6, -4.6, -4.6, -4.6, -4.96, -4.96, -4.96, -4.96, -5.75, -4.8, -4.8, -2.6, 0.0, 0.0, 0.0, 0.0, 0.0, 0.0, 1.77, 1.68, 3.24, 6.42, 8.14, 9.2, 11.13, 16.59, 9.19, -26.82, -20.56, -16.91, -13.39, -10.04, -8.53, 0.0, 5.8, 9.48, 4.38, 4.24, 7.44, 7.44, 7.44, -10.25, -10.25, -10.25, -9.77, -9.77, -9.69, -9.69, -10.02, -10.02, -10.02, -10.36, -10.36, -9.8, -9.5, -9.5, -9.5, -9.5, -9.5, -8.94, -8.2, -8.2, -8.46, -8.46, -7.92, -7.92, -7.92, -7.68, -7.44, -7.44, -6.98, -6.98, -7.21, -7.68, -7.44, -7.2, -7.2, -6.76, -6.76, -6.76, -6.76, -7.2, -7.2, -7.44, -7.2, -6.96, -6.72, -6.96, -6.96, -6.48, -6.24, -5.76, -5.9, -5.64, -5.38, -5.13, -5.13, -4.6, -4.6, -4.37, -4.6, -4.96, -4.71, -4.71, -4.71, -5.1, -4.4, -4.6, -3.39, 0.0, 0.0, 0.0, 0.0, 0.0, 0.0, 0.0, 1.72, 1.83, 3.39, 6.47, 7.95, 9.0, 11.04, 13.94, 15.87, -3.98, -22.62, -14.31, -10.32, -9.58, -6.97, 0.0, 0.0, 3.96, 4.1, 3.82, 2.82, 2.82, 2.82, -10.25, -9.89, -10.25, -10.25, -9.88, -10.23, -10.23, -10.23, -10.59, -10.02, -10.36, -10.36, -10.12, -10.12, -9.21, -9.21, -9.21, -9.21, -8.66, -8.2, -8.2, -8.46, -8.46, -7.92, -7.92, -7.92, -7.68, -7.68, -7.44, -7.2, -7.2, -7.2, -7.44, -7.44, -7.2, -6.96, -6.53, -6.53, -6.53, -6.96, -7.2, -7.2, -7.2, -7.2, -7.62, -7.62, -7.62, -7.18, -6.92, -6.67, -6.15, -5.9, -5.64, -5.13, -4.87, -4.87, -4.87, -4.87, -4.37, -4.71, -4.71, -4.71, -4.71, -4.46, -4.83, -5.63, -4.4, -2.6, -2.6, 0.0, 0.0, 0.0, -2.6, -1.91, 0.0, 0.0, 1.77, 3.3, 5.23, 6.81, 6.72, 9.63, 11.04, 11.2, 6.83, -19.4, -16.09, -10.73, -11.18, -10.4, -2.82, 0.0, 0.0, 0.0, 0.0, 3.68, 3.68, 3.68, -9.89, -9.89, -9.89, -10.25, -9.88, -9.88, -10.23, -10.23, -10.59, -10.59, -10.36, -9.8, -10.12, -10.12, -9.21, -8.91, -8.91, -9.21, -9.5, -8.94, -8.2, -8.2, -8.46, -7.92, -7.92, -7.92, -7.68, -7.68, -7.44, -7.44, -7.2, -7.2, -7.2, -7.2, -6.96, -6.96, -6.53, -6.53, -6.96, -6.96, -6.96, -6.96, -7.2, -7.89, -7.62, -7.62, -7.18, -7.18, -6.92, -6.67, -6.15, -5.64, -5.64, -5.38, -5.13, -4.87, -4.87, -4.87, -4.94, -5.21, -5.21, -4.94, -4.46, -4.83, -4.83, -4.65, -6.32, -5.46, -5.7, -3.98, -2.19, -2.28, -2.71, -5.7, -2.28, 0.0, 1.72, 3.58, 3.39, 3.33, 5.4, 5.65, 4.62, 3.82, -11.0, -9.4, -12.01, -10.4, -9.6, -11.18, 0.0, 0.0, 0.0, 0.0, 0.0, 0.0, 0.0, 0.0, -9.89, -9.89, -9.89, -9.53, -9.88, -9.88, -9.88, -10.23, -9.76, -10.09, -9.8, -9.8, -10.12, -9.8, -8.91, -8.91, -9.21, -9.21, -9.5, -8.94, -8.94, -8.2, -8.46, -8.46, -7.92, -7.68, -7.68, -7.44, -8.15, -7.44, -7.2, -7.2, -7.2, -7.2, -6.96, -6.96, -6.96, -6.72, -6.72, -6.96, -6.96, -6.96, -6.96, -7.62, -7.62, -7.43, -7.18, -7.18, -6.92, -6.67, -6.15, -5.9, -5.9, -5.76, -5.49, -5.21, -4.94, -4.94, -4.94, -4.94, -4.94, -4.94, -5.3, -4.56, -4.56, -4.65, -6.01, -6.32, -6.95, -5.7, -6.44, -3.53, -4.15, -3.39, -3.39, 0.0, 1.9, 1.83, 1.68, 1.78, 3.33, 1.87, 0.0, 1.1, 0.0, -0.0, -0.0, -0.0, -0.0, 7.27, 10.0, 8.53, 5.4, 0.0, 0.0, 0.0, 0.0, 0.0, -9.89, -9.89, -9.89, -9.53, -9.88, -9.88, -9.42, -9.76, -9.76, -10.09, -9.8, -9.8, -9.8, -9.8, -9.48, -8.91, -9.21, -9.21, -9.21, -9.5, -8.94, -8.94, -9.22, -9.22, -9.22, -8.94, -8.41, -8.15, -8.15, -7.2, -7.2, -7.2, -7.2, -7.2, -6.96, -6.72, -6.72, -6.72, -6.72, -6.72, -6.96, -6.96, -6.96, -6.96, -7.43, -7.43, -7.18, -7.18, -6.92, -7.26, -6.7, -5.9, -6.04, -5.76, -5.49, -5.21, -5.21, -4.94, -4.94, -4.94, -4.94, -5.3, -5.0, -5.0, -4.71, -5.06, -5.09, -4.46, -8.0, -8.8, -6.95, -5.7, -2.6, 0.0, 0.0, 0.0, 2.13, 1.77, 1.68, 1.73, 1.78, 1.62, 1.29, 4.28, 0.0, -0.0, 9.42, 12.39, 11.62, 11.4, 10.84, 10.37, 9.48, 7.44, 4.24, 0.0, 0.0, 0.0, -10.35, -10.35, -10.04, -10.04, -10.04, -10.01, -10.01, -9.76, -9.76, -10.09, -10.09, -9.48, -9.48, -9.48, -9.17, -9.48, -9.21, -9.21, -9.21, -9.5, -8.94, -8.94, -8.94, -8.94, -8.94, -8.94, -8.15, -8.15, -8.15, -7.2, -6.96, -7.2, -7.2, -7.2, -6.96, -6.72, -6.72, -6.72, -6.48, -6.72, -6.72, -6.72, -6.96, -7.43, -7.43, -7.18, -7.18, -7.82, -7.82, -7.72, -7.13, -6.83, -6.04, -5.76, -5.94, -5.64, -5.64, -5.35, -5.35, -4.94, -4.94, -5.0, -5.0, -5.0, -5.37, -5.38, -5.43, -5.43, -7.2, -8.0, -7.81, -5.46, -3.25, 0.0, 0.0, 0.0, 1.98, 1.66, 3.2, 3.3, 3.79, 3.04, 2.92, 6.4, 4.63, -19.67, 7.2, 10.73, 10.6, 10.58, 11.4, 11.5, 11.44, 8.31, 8.31, 4.98, 4.98, 4.98, -9.97, -9.97, -10.04, -10.04, -10.04, -9.66, -10.01, -10.37, -9.42, -9.76, -9.76, -9.76, -9.17, -9.17, -9.17, -9.48, -9.21, -9.21, -9.21, -9.21, -9.5, -8.94, -8.94, -8.94, -8.94, -8.94, -8.66, -8.66, -7.2, -7.69, -7.43, -7.69, -7.2, -7.2, -6.96, -6.72, -6.72, -6.72, -6.48, -6.92, -7.18, -7.18, -7.18, -7.18, -7.18, -7.82, -7.82, -7.82, -8.32, -7.72, -7.13, -6.83, -6.53, -6.24, -5.94, -5.64, -5.64, -5.35, -5.35, -5.35, -5.37, -5.37, -5.37, -5.37, -5.37, -5.38, -5.43, -5.46, -5.43, -8.0, -7.81, -5.21, -4.4, -2.6, 0.0, -2.6, -2.6, 0.0, 1.72, 3.2, 1.89, 1.52, 1.52, 5.93, 6.99, 0.0, 3.24, 11.12, 10.6, 11.18, 11.02, 11.6, 10.82, 8.58, 7.13, 6.9, 6.9, 6.9, -9.67, -9.67, -9.67, -10.04, -9.67, -9.66, -9.66, -10.01, -9.42, -9.42, -9.76, -9.76, -9.17, -9.17, -9.17, -9.48, -9.8, -9.21, -9.21, -9.21, -9.21, -9.5, -8.94, -8.94, -8.94, -8.66, -8.66, -8.38, -8.38, -7.69, -7.43, -7.69, -7.69, -6.96, -6.96, -6.72, -6.72, -6.92, -6.92, -7.54, -7.82, -7.82, -7.82, -7.82, -7.82, -7.82, -7.82, -8.32, -8.32, -7.72, -7.13, -6.83, -6.53, -6.24, -6.24, -5.94, -5.64, -5.64, -5.35, -5.69, -5.37, -5.37, -5.68, -5.68, -5.37, -5.38, -5.09, -6.07, -5.69, -7.6, -7.44, -6.64, -6.95, -4.6, -4.8, -3.98, -6.44, -2.28, 0.0, 0.0, 0.0, 0.0, 0.0, 0.0, 4.39, 0.0, -0.0, 10.12, 11.91, 11.62, 11.02, 9.97, 8.59, 7.13, 4.98, 4.98, 4.98, 4.98, -10.16, -10.16, -10.16, -9.67, -9.3, -9.66, -9.66, -9.66, -9.66, -9.42, -9.42, -9.76, -9.76, -9.17, -9.17, -9.48, -9.48, -9.8, -9.21, -9.21, -9.21, -9.5, -9.5, -8.94, -8.66, -8.66, -8.66, -8.38, -8.38, -8.1, -8.1, -7.69, -8.38, -8.1, -7.82, -7.18, -6.92, -6.92, -7.54, -7.54, -7.82, -7.82, -7.82, -7.54, -7.54, -7.54, -8.32, -8.32, -8.32, -7.72, -7.13, -6.83, -6.53, -6.53, -6.24, -5.94, -5.64, -5.69, -5.69, -5.68, -5.68, -5.68, -6.01, -5.68, -5.72, -5.38, -5.72, -5.72, -6.25, -7.2, -7.6, -7.15, -7.51, -6.95, -4.6, -3.98, -3.98, -4.8, -3.68, 0.0, -1.63, -1.37, -1.47, -1.48, 1.12, 3.6, 0.0, 13.59, 11.2, 12.07, 10.38, 8.22, 5.6, 4.81, 5.8, 5.8, 5.8, 5.8, -9.77, -9.77, -9.77, -10.16, -9.3, -9.3, -9.3, -9.66, -9.66, -9.42, -9.42, -9.76, -9.76, -9.76, -9.76, -9.48, -9.8, -9.48, -9.21, -9.21, -9.21, -9.5, -9.5, -9.5, -8.66, -8.66, -8.38, -8.38, -8.38, -8.1, -8.1, -8.38, -8.38, -8.1, -7.82, -7.82, -7.54, -7.54, -7.54, -7.54, -7.54, -7.54, -7.54, -7.54, -7.54, -8.02, -8.02, -8.02, -8.02, -7.42, -7.13, -7.27, -7.27, -6.95, -6.64, -6.64, -6.32, -6.01, -6.01, -6.01, -6.01, -6.01, -5.68, -5.68, -5.72, -5.72, -6.08, -6.32, -6.25, -6.25, -6.54, -7.28, -7.15, -6.32, -4.4, -2.02, 0.0, 0.0, 0.0, 0.0, 0.0, -1.46, -1.44, -1.56, 0.0, 4.12, 4.43, 4.23, 6.4, 11.6, 11.03, 6.97, 4.48, 4.81, 5.8, 5.8, 5.8, 5.8, -9.77, -9.77, -9.77, -9.77, -9.3, -9.3, -9.3, -9.66, -9.66, -10.01, -9.42, -9.42, -9.76, -9.76, -9.76, -9.48, -9.48, -9.48, -9.48, -9.21, -9.21, -9.21, -9.5, -9.5, -9.21, -8.38, -8.38, -8.38, -8.1, -8.1, -8.1, -8.38, -8.38, -8.1, -7.82, -7.82, -7.54, -7.54, -7.54, -7.54, -7.54, -7.54, -7.54, -8.02, -7.72, -7.72, -7.72, -8.02, -7.72, -7.13, -7.59, -7.27, -7.27, -7.27, -6.95, -7.02, -6.68, -6.35, -6.35, -6.01, -6.01, -6.01, -5.68, -6.06, -6.35, -6.0, -6.32, -5.95, -6.13, -6.8, -6.8, -7.67, -6.79, -6.95, -4.96, -2.39, 0.0, 0.0, 0.0, 0.0, 0.0, 0.0, 0.0, 0.0, 1.55, 5.64, 7.92, 6.05, 0.0, -0.0, 13.86, 6.7, 2.45, 2.54, 3.25, 6.0, 6.0, 6.0, -9.77, -9.77, -9.77, -9.77, -9.3, -9.3, -9.3, -9.66, -9.66, -10.01, -9.42, -9.42, -9.76, -9.76, -9.76, -10.09, -9.48, -9.48, -9.48, -9.8, -9.21, -9.21, -9.21, -9.21, -9.21, -8.91, -8.91, -8.91, -8.61, -8.61, -8.61, -8.38, -8.1, -8.32, -8.32, -8.32, -8.02, -7.54, -7.26, -7.26, -7.54, -8.02, -7.72, -7.72, -7.42, -7.42, -7.42, -7.42, -7.9, -7.59, -7.27, -7.27, -7.27, -7.68, -7.35, -7.35, -7.02, -6.68, -6.35, -6.01, -6.01, -6.01, -6.01, -6.35, -6.35, -6.32, -6.52, -6.52, -6.52, -6.52, -6.8, -6.07, -5.58, -6.64, -4.96, -2.39, -2.49, 0.0, 0.0, 0.0, 0.0, 0.0, 0.0, 0.0, 1.56, 6.53, 8.8, 9.02, 3.51, 0.0, 0.0, 6.6, 0.0, 0.0, 0.0, 0.0, 0.0, 0.0, -9.77, -9.77, -9.77, -9.77, -9.3, -9.3, -9.3, -9.66, -9.66, -10.01, -9.42, -9.42, -9.76, -9.76, -9.76, -10.09, -9.48, -9.48, -9.48, -9.8, -9.21, -9.21, -9.21, -9.21, -9.21, -8.91, -8.91, -8.91, -8.61, -8.61, -8.61, -8.38, -8.1, -8.32, -8.32, -8.32, -8.02, -7.54, -7.26, -7.26, -7.54, -8.02, -7.72, -7.72, -7.42, -7.42, -7.42, -7.42, -7.9, -7.59, -7.27, -7.27, -7.27, -7.68, -7.35, -7.35, -7.02, -6.68, -6.35, -6.01, -6.01, -6.01, -6.01, -6.35, -6.35, -6.32, -6.52, -6.52, -6.52, -6.52, -6.8, -6.07, -5.58, -6.64, -4.96, -2.39, 0.0, 0.0, 0.0, 0.0, 0.0, 0.0, 0.0, 0.0, 3.31, 4.99, 8.96, 9.33, 8.17, 3.42, 0.0, 0.0, 0.0, 0.0, 0.0, 0.0, 0.0, 0.0]}]